Time,TemperatureF,DewpointF,PressureIn,WindDirection,WindDirectionDegrees,WindSpeedMPH,WindSpeedGustMPH,Humidity,HourlyPrecipIn,Conditions,Clouds,dailyrainin,SoftwareType,DateUTC
2013-07-02 00:23:00,72.7,73.0,30.73,East,83,8.7,8.7,99,0.00,,,0.00,TxWx,2013-07-02 04:23:00,
2013-07-02 00:29:00,72.8,73.0,30.73,East,83,3.6,3.6,99,0.00,,,0.00,TxWx,2013-07-02 04:29:00,
2013-07-02 00:35:00,72.7,73.0,30.73,East,83,8.7,8.7,99,0.00,,,0.00,TxWx,2013-07-02 04:35:00,
2013-07-02 00:40:00,72.8,73.0,30.73,East,83,12.3,12.3,99,0.00,,,0.00,TxWx,2013-07-02 04:40:00,
2013-07-02 00:45:00,72.7,73.0,30.73,East,83,7.8,8.1,99,0.00,,,0.00,TxWx,2013-07-02 04:45:00,
2013-07-02 00:51:00,72.8,73.0,30.73,East,83,6.0,6.3,99,0.00,,,0.00,TxWx,2013-07-02 04:51:00,
2013-07-02 00:56:00,72.8,73.0,30.73,East,83,7.5,7.5,99,0.00,,,0.00,TxWx,2013-07-02 04:56:00,
2013-07-02 01:01:00,72.8,73.0,30.73,East,83,8.4,8.4,99,0.00,,,0.00,TxWx,2013-07-02 05:01:00,
2013-07-02 01:06:00,72.8,72.0,30.73,East,83,6.3,6.9,98,0.00,,,0.00,TxWx,2013-07-02 05:06:00,
2013-07-02 01:11:00,72.8,72.0,30.73,East,83,6.0,6.0,98,0.00,,,0.00,TxWx,2013-07-02 05:11:00,
2013-07-02 01:16:00,73.0,72.0,30.73,East,83,4.8,5.4,98,0.00,,,0.00,TxWx,2013-07-02 05:16:00,
2013-07-02 01:21:00,73.0,72.0,30.73,East,83,4.5,4.5,98,0.00,,,0.00,TxWx,2013-07-02 05:21:00,
2013-07-02 01:27:00,73.1,72.0,30.73,East,83,6.0,6.0,98,0.00,,,0.00,TxWx,2013-07-02 05:27:00,
2013-07-02 01:32:00,73.1,72.0,30.73,East,83,6.3,6.6,98,0.00,,,0.00,TxWx,2013-07-02 05:32:00,
2013-07-02 01:37:00,73.1,72.0,30.73,East,83,2.7,3.6,98,0.00,,,0.00,TxWx,2013-07-02 05:37:00,
2013-07-02 01:42:00,73.1,72.0,30.73,East,83,6.6,6.9,98,0.00,,,0.00,TxWx,2013-07-02 05:42:00,
2013-07-02 01:47:00,73.0,73.0,30.73,East,83,8.7,10.2,99,0.00,,,0.00,TxWx,2013-07-02 05:47:00,
2013-07-02 01:53:00,73.0,73.0,30.73,East,84,4.5,4.8,99,0.00,,,0.00,TxWx,2013-07-02 05:53:00,
2013-07-02 01:58:00,72.9,73.0,30.73,East,83,6.6,9.0,99,0.00,,,0.00,TxWx,2013-07-02 05:58:00,
2013-07-02 02:03:00,73.0,73.0,30.74,East,84,8.4,8.4,99,0.00,,,0.00,TxWx,2013-07-02 06:03:00,
2013-07-02 02:09:00,72.9,73.0,30.74,East,83,5.7,6.9,99,0.00,,,0.00,TxWx,2013-07-02 06:09:00,
2013-07-02 02:14:00,72.9,73.0,30.74,East,84,3.0,3.3,99,0.00,,,0.00,TxWx,2013-07-02 06:14:00,
2013-07-02 02:19:00,72.8,73.0,30.74,East,84,6.6,6.6,99,0.00,,,0.00,TxWx,2013-07-02 06:19:00,
2013-07-02 02:24:00,72.8,73.0,30.73,East,84,5.4,5.7,100,0.00,,,0.00,TxWx,2013-07-02 06:24:00,
2013-07-02 02:29:00,72.7,73.0,30.73,East,83,5.7,6.9,100,0.00,,,0.00,TxWx,2013-07-02 06:29:00,
2013-07-02 02:34:00,72.7,73.0,30.73,East,83,6.3,6.3,100,0.00,,,0.00,TxWx,2013-07-02 06:34:00,
2013-07-02 02:39:00,72.6,73.0,30.73,East,83,5.1,5.1,100,0.00,,,0.00,TxWx,2013-07-02 06:39:00,
2013-07-02 02:44:00,72.4,72.0,30.73,East,83,4.8,5.4,100,0.00,,,0.00,TxWx,2013-07-02 06:44:00,
2013-07-02 02:50:00,72.4,72.0,30.73,East,83,4.2,4.8,100,0.00,,,0.00,TxWx,2013-07-02 06:50:00,
2013-07-02 02:55:00,72.4,72.0,30.73,East,83,6.3,6.3,100,0.00,,,0.00,TxWx,2013-07-02 06:55:00,
2013-07-02 03:00:00,72.3,72.0,30.73,East,83,6.6,6.9,100,0.00,,,0.00,TxWx,2013-07-02 07:00:00,
2013-07-02 03:05:00,72.3,72.0,30.73,East,83,4.8,4.8,100,0.00,,,0.00,TxWx,2013-07-02 07:05:00,
2013-07-02 03:10:00,72.2,72.0,30.73,East,83,5.7,5.7,100,0.00,,,0.00,TxWx,2013-07-02 07:10:00,
2013-07-02 03:15:00,72.2,72.0,30.74,East,84,1.8,2.1,100,0.00,,,0.00,TxWx,2013-07-02 07:15:00,
2013-07-02 03:20:00,72.2,72.0,30.74,East,83,4.5,4.5,100,0.00,,,0.00,TxWx,2013-07-02 07:20:00,
2013-07-02 03:26:00,72.1,72.0,30.74,East,83,5.1,5.7,100,0.00,,,0.00,TxWx,2013-07-02 07:26:00,
2013-07-02 03:31:00,72.2,72.0,30.74,East,83,3.3,3.3,100,0.00,,,0.00,TxWx,2013-07-02 07:31:00,
2013-07-02 03:36:00,72.1,72.0,30.74,East,83,5.4,5.7,100,0.00,,,0.00,TxWx,2013-07-02 07:36:00,
2013-07-02 03:41:00,72.2,72.0,30.74,East,83,8.1,8.1,100,0.00,,,0.00,TxWx,2013-07-02 07:41:00,
2013-07-02 03:46:00,72.3,72.0,30.74,East,83,4.5,4.5,100,0.00,,,0.00,TxWx,2013-07-02 07:46:00,
2013-07-02 03:51:00,72.3,72.0,30.74,East,83,7.2,7.2,100,0.00,,,0.00,TxWx,2013-07-02 07:51:00,
2013-07-02 03:57:00,72.4,72.0,30.74,East,83,7.8,7.8,100,0.00,,,0.00,TxWx,2013-07-02 07:57:00,
2013-07-02 04:02:00,72.5,72.0,30.74,East,84,10.5,10.5,100,0.00,,,0.01,TxWx,2013-07-02 08:02:00,
2013-07-02 04:07:00,72.6,73.0,30.74,East,84,5.4,5.4,100,0.06,,,0.01,TxWx,2013-07-02 08:07:00,
2013-07-02 04:12:00,72.6,73.0,30.74,East,83,5.4,6.3,100,0.06,,,0.01,TxWx,2013-07-02 08:12:00,
2013-07-02 04:18:00,72.7,73.0,30.74,East,83,8.4,8.4,100,0.00,,,0.01,TxWx,2013-07-02 08:18:00,
2013-07-02 04:23:00,72.8,73.0,30.74,East,83,6.3,6.3,100,0.00,,,0.01,TxWx,2013-07-02 08:23:00,
2013-07-02 04:28:00,73.0,73.0,30.74,East,83,3.3,3.6,100,0.00,,,0.01,TxWx,2013-07-02 08:28:00,
2013-07-02 04:33:00,73.0,73.0,30.74,East,83,5.7,6.0,100,0.00,,,0.01,TxWx,2013-07-02 08:33:00,
2013-07-02 04:39:00,73.0,73.0,30.74,East,83,7.2,8.7,100,0.00,,,0.01,TxWx,2013-07-02 08:39:00,
2013-07-02 04:44:00,73.0,73.0,30.74,East,83,5.1,5.4,100,0.00,,,0.01,TxWx,2013-07-02 08:44:00,
2013-07-02 04:49:00,73.1,73.0,30.74,East,83,5.4,5.7,100,0.00,,,0.01,TxWx,2013-07-02 08:49:00,
2013-07-02 04:54:00,73.1,73.0,30.75,East,83,6.6,6.9,100,0.00,,,0.01,TxWx,2013-07-02 08:54:00,
2013-07-02 05:00:00,73.1,73.0,30.74,East,83,4.5,4.8,100,0.00,,,0.01,TxWx,2013-07-02 09:00:00,
2013-07-02 05:05:00,73.1,73.0,30.75,East,83,7.8,7.8,100,0.00,,,0.01,TxWx,2013-07-02 09:05:00,
2013-07-02 05:10:00,73.1,73.0,30.75,East,83,6.3,6.6,100,0.00,,,0.01,TxWx,2013-07-02 09:10:00,
2013-07-02 05:15:00,73.1,73.0,30.75,East,83,4.2,4.2,100,0.00,,,0.01,TxWx,2013-07-02 09:15:00,
2013-07-02 05:20:00,73.1,73.0,30.75,East,83,10.8,11.7,100,0.00,,,0.01,TxWx,2013-07-02 09:20:00,
2013-07-02 05:25:00,73.1,73.0,30.75,East,83,8.7,10.2,100,0.00,,,0.01,TxWx,2013-07-02 09:25:00,
2013-07-02 05:30:00,73.1,73.0,30.75,East,84,6.6,9.0,100,0.00,,,0.01,TxWx,2013-07-02 09:30:00,
2013-07-02 05:36:00,73.1,73.0,30.76,East,83,7.5,7.5,100,0.00,,,0.01,TxWx,2013-07-02 09:36:00,
2013-07-02 05:41:00,73.0,73.0,30.76,East,83,8.7,10.2,100,0.00,,,0.01,TxWx,2013-07-02 09:41:00,
2013-07-02 05:46:00,73.1,73.0,30.76,East,83,5.1,5.1,100,0.00,,,0.01,TxWx,2013-07-02 09:46:00,
2013-07-02 05:51:00,73.1,73.0,30.76,East,84,6.0,6.0,100,0.00,,,0.01,TxWx,2013-07-02 09:51:00,
2013-07-02 05:57:00,73.1,73.0,30.77,East,83,5.1,5.1,100,0.00,,,0.01,TxWx,2013-07-02 09:57:00,
2013-07-02 06:02:00,73.1,73.0,30.77,East,83,9.3,9.3,100,0.00,,,0.01,TxWx,2013-07-02 10:02:00,
2013-07-02 06:07:00,73.2,73.0,30.77,East,83,6.3,6.3,100,0.00,,,0.01,TxWx,2013-07-02 10:07:00,
2013-07-02 06:12:00,73.3,73.0,30.77,East,84,3.0,3.0,100,0.00,,,0.01,TxWx,2013-07-02 10:12:00,
2013-07-02 06:17:00,73.3,73.0,30.77,East,83,7.5,7.5,100,0.00,,,0.01,TxWx,2013-07-02 10:17:00,
2013-07-02 06:23:00,73.3,73.0,30.77,East,83,7.8,7.8,100,0.00,,,0.01,TxWx,2013-07-02 10:23:00,
2013-07-02 06:28:00,73.4,73.0,30.77,East,84,3.0,3.0,100,0.00,,,0.01,TxWx,2013-07-02 10:28:00,
2013-07-02 06:33:00,73.3,73.0,30.77,East,83,6.9,6.9,99,0.00,,,0.01,TxWx,2013-07-02 10:33:00,
2013-07-02 06:38:00,73.2,73.0,30.77,East,83,7.2,7.8,99,0.00,,,0.01,TxWx,2013-07-02 10:38:00,
2013-07-02 06:43:00,73.3,73.0,30.77,East,83,6.0,7.2,99,0.00,,,0.01,TxWx,2013-07-02 10:43:00,
2013-07-02 06:49:00,73.3,73.0,30.77,East,84,6.9,8.1,99,0.00,,,0.01,TxWx,2013-07-02 10:49:00,
2013-07-02 06:54:00,73.5,73.0,30.77,East,83,3.0,3.6,99,0.00,,,0.01,TxWx,2013-07-02 10:54:00,
2013-07-02 06:59:00,73.5,73.0,30.77,East,83,7.2,8.1,99,0.00,,,0.01,TxWx,2013-07-02 10:59:00,
2013-07-02 07:04:00,73.6,74.0,30.77,East,83,9.0,9.0,99,0.00,,,0.01,TxWx,2013-07-02 11:04:00,
2013-07-02 07:09:00,73.5,74.0,30.77,East,83,6.3,6.6,99,0.00,,,0.01,TxWx,2013-07-02 11:09:00,
2013-07-02 07:14:00,73.6,74.0,30.77,East,84,6.6,6.6,99,0.00,,,0.01,TxWx,2013-07-02 11:14:00,
2013-07-02 07:20:00,73.5,73.0,30.77,East,83,6.6,6.9,99,0.00,,,0.01,TxWx,2013-07-02 11:20:00,
2013-07-02 07:25:00,73.5,73.0,30.77,East,83,6.0,6.0,99,0.00,,,0.01,TxWx,2013-07-02 11:25:00,
2013-07-02 07:30:00,73.5,73.0,30.78,East,83,6.0,8.4,99,0.00,,,0.01,TxWx,2013-07-02 11:30:00,
2013-07-02 07:35:00,73.5,74.0,30.78,East,83,5.1,5.7,99,0.00,,,0.01,TxWx,2013-07-02 11:35:00,
2013-07-02 07:40:00,73.4,73.0,30.78,East,84,9.6,9.6,99,0.00,,,0.01,TxWx,2013-07-02 11:40:00,
2013-07-02 07:46:00,73.4,73.0,30.78,East,84,5.4,6.0,99,0.00,,,0.01,TxWx,2013-07-02 11:46:00,
2013-07-02 07:51:00,73.3,73.0,30.78,East,83,16.2,16.5,99,0.00,,,0.01,TxWx,2013-07-02 11:51:00,
2013-07-02 07:56:00,73.3,73.0,30.78,East,83,7.2,7.2,99,0.00,,,0.01,TxWx,2013-07-02 11:56:00,
2013-07-02 08:02:00,73.2,73.0,30.78,East,84,6.3,6.3,99,0.00,,,0.01,TxWx,2013-07-02 12:02:00,
2013-07-02 08:07:00,73.2,73.0,30.78,East,84,9.6,9.6,99,0.00,,,0.01,TxWx,2013-07-02 12:07:00,
2013-07-02 08:12:00,73.3,73.0,30.78,East,83,8.1,8.7,100,0.00,,,0.01,TxWx,2013-07-02 12:12:00,
2013-07-02 08:17:00,73.5,74.0,30.79,East,83,3.0,3.6,100,0.00,,,0.01,TxWx,2013-07-02 12:17:00,
2013-07-02 08:22:00,73.5,73.0,30.79,East,83,6.0,6.3,99,0.00,,,0.01,TxWx,2013-07-02 12:22:00,
2013-07-02 08:27:00,73.5,73.0,30.79,East,83,7.2,8.1,99,0.00,,,0.01,TxWx,2013-07-02 12:27:00,
2013-07-02 08:33:00,73.6,74.0,30.79,East,83,9.3,9.3,99,0.00,,,0.01,TxWx,2013-07-02 12:33:00,
2013-07-02 08:38:00,73.5,74.0,30.79,East,83,8.1,8.4,99,0.00,,,0.01,TxWx,2013-07-02 12:38:00,
2013-07-02 08:43:00,73.6,74.0,30.79,East,83,6.3,6.3,99,0.00,,,0.01,TxWx,2013-07-02 12:43:00,
2013-07-02 08:48:00,73.8,74.0,30.79,East,84,3.3,3.3,99,0.00,,,0.01,TxWx,2013-07-02 12:48:00,
2013-07-02 08:53:00,73.9,74.0,30.79,East,83,4.5,4.8,99,0.00,,,0.01,TxWx,2013-07-02 12:53:00,
2013-07-02 08:59:00,74.0,74.0,30.79,East,84,3.3,3.6,99,0.00,,,0.01,TxWx,2013-07-02 12:59:00,
2013-07-02 09:04:00,74.0,73.0,30.79,East,84,9.3,9.3,98,0.00,,,0.01,TxWx,2013-07-02 13:04:00,
2013-07-02 09:09:00,74.2,73.0,30.79,East,84,8.1,8.7,98,0.00,,,0.01,TxWx,2013-07-02 13:09:00,
2013-07-02 09:14:00,74.2,73.0,30.79,East,83,14.1,14.1,98,0.00,,,0.01,TxWx,2013-07-02 13:14:00,
2013-07-02 09:20:00,74.3,73.0,30.79,East,83,8.7,10.2,97,0.00,,,0.01,TxWx,2013-07-02 13:20:00,
2013-07-02 09:25:00,74.3,73.0,30.79,East,83,5.4,5.4,97,0.00,,,0.01,TxWx,2013-07-02 13:25:00,
2013-07-02 09:30:00,74.4,73.0,30.79,East,84,9.9,10.8,97,0.00,,,0.01,TxWx,2013-07-02 13:30:00,
2013-07-02 09:35:00,74.1,73.0,30.79,East,84,4.8,5.4,97,0.00,,,0.01,TxWx,2013-07-02 13:35:00,
2013-07-02 09:40:00,74.5,73.0,30.79,East,84,8.1,8.1,97,0.00,,,0.01,TxWx,2013-07-02 13:40:00,
2013-07-02 09:45:00,74.3,73.0,30.79,East,84,12.9,15.0,97,0.00,,,0.01,TxWx,2013-07-02 13:45:00,
2013-07-02 09:51:00,74.6,74.0,30.79,East,83,2.7,2.7,97,0.00,,,0.01,TxWx,2013-07-02 13:51:00,
2013-07-02 09:56:00,74.6,74.0,30.79,East,84,9.3,9.3,97,0.00,,,0.01,TxWx,2013-07-02 13:56:00,
2013-07-02 10:01:00,74.7,74.0,30.79,East,84,5.7,6.0,97,0.00,,,0.01,TxWx,2013-07-02 14:01:00,
2013-07-02 10:06:00,74.6,74.0,30.79,East,83,10.5,10.5,96,0.00,,,0.01,TxWx,2013-07-02 14:06:00,
2013-07-02 10:11:00,74.9,74.0,30.79,East,83,9.3,10.8,96,0.00,,,0.01,TxWx,2013-07-02 14:11:00,
2013-07-02 10:17:00,75.0,73.0,30.79,East,83,6.6,8.7,95,0.00,,,0.01,TxWx,2013-07-02 14:17:00,
2013-07-02 10:22:00,75.2,73.0,30.79,East,83,3.6,4.2,95,0.00,,,0.01,TxWx,2013-07-02 14:22:00,
2013-07-02 10:27:00,75.3,73.0,30.79,East,83,5.4,5.4,95,0.00,,,0.01,TxWx,2013-07-02 14:27:00,
2013-07-02 10:32:00,75.1,73.0,30.79,East,83,4.2,5.1,95,0.00,,,0.01,TxWx,2013-07-02 14:32:00,
2013-07-02 10:37:00,74.9,73.0,30.80,East,83,6.0,6.9,95,0.00,,,0.01,TxWx,2013-07-02 14:37:00,
2013-07-02 10:42:00,74.6,74.0,30.80,East,83,4.8,5.7,96,0.00,,,0.01,TxWx,2013-07-02 14:42:00,
2013-07-02 10:47:00,74.4,73.0,30.80,East,84,3.6,3.9,96,0.00,,,0.01,TxWx,2013-07-02 14:47:00,
2013-07-02 10:52:00,74.4,73.0,30.80,East,83,7.5,7.5,97,0.00,,,0.01,TxWx,2013-07-02 14:52:00,
2013-07-02 10:57:00,74.6,74.0,30.80,East,84,8.4,8.4,96,0.00,,,0.01,TxWx,2013-07-02 14:57:00,
2013-07-02 11:03:00,75.0,74.0,30.80,East,83,2.7,2.7,96,0.00,,,0.01,TxWx,2013-07-02 15:03:00,
2013-07-02 11:08:00,75.4,74.0,30.80,East,84,6.3,6.3,96,0.00,,,0.01,TxWx,2013-07-02 15:08:00,
2013-07-02 11:13:00,75.2,73.0,30.80,East,84,9.0,10.5,95,0.00,,,0.01,TxWx,2013-07-02 15:13:00,
2013-07-02 11:18:00,75.0,73.0,30.80,East,83,6.9,7.8,95,0.00,,,0.01,TxWx,2013-07-02 15:18:00,
2013-07-02 11:23:00,75.4,73.0,30.80,East,83,7.8,9.3,94,0.00,,,0.01,TxWx,2013-07-02 15:23:00,
2013-07-02 11:29:00,75.3,73.0,30.80,East,84,12.0,12.0,94,0.00,,,0.01,TxWx,2013-07-02 15:29:00,
2013-07-02 11:33:00,75.2,72.0,30.81,East,84,8.1,10.2,91,0.00,,,0.01,TxWx,2013-07-02 15:33:00,
2013-07-02 11:34:00,75.4,73.0,30.81,East,83,6.9,7.5,94,0.00,,,0.01,TxWx,2013-07-02 15:34:00,
2013-07-02 11:37:00,75.2,72.0,30.81,East,83,10.5,11.4,92,0.00,,,0.01,TxWx,2013-07-02 15:37:00,
2013-07-02 11:39:00,75.6,74.0,30.81,East,83,4.8,5.1,94,0.00,,,0.01,TxWx,2013-07-02 15:39:00,
2013-07-02 11:40:00,75.1,72.0,30.81,East,83,10.2,10.2,92,0.00,,,0.01,TxWx,2013-07-02 15:40:00,
2013-07-02 11:41:00,75.0,72.0,30.81,East,83,9.6,9.6,92,0.00,,,0.01,TxWx,2013-07-02 15:41:00,
2013-07-02 11:43:00,75.1,72.0,30.81,East,83,5.4,5.4,92,0.00,,,0.01,TxWx,2013-07-02 15:43:00,
2013-07-02 11:44:00,75.9,74.0,30.81,East,84,7.2,8.4,93,0.00,,,0.01,TxWx,2013-07-02 15:44:00,
2013-07-02 11:46:00,75.1,73.0,30.81,East,83,6.0,6.0,92,0.00,,,0.01,TxWx,2013-07-02 15:46:00,
2013-07-02 11:47:00,75.0,72.0,30.81,East,83,9.9,9.9,92,0.00,,,0.01,TxWx,2013-07-02 15:47:00,
2013-07-02 11:49:00,76.5,74.0,30.81,East,84,2.1,2.4,93,0.00,,,0.01,TxWx,2013-07-02 15:49:00,
2013-07-02 11:51:00,74.9,73.0,30.81,East,83,4.2,4.8,92,0.00,,,0.01,TxWx,2013-07-02 15:51:00,
2013-07-02 11:54:00,76.3,73.0,30.81,East,84,3.9,3.9,91,0.00,,,0.01,TxWx,2013-07-02 15:54:00,
2013-07-02 11:58:00,74.7,73.0,30.81,East,83,3.9,4.2,93,0.00,,,0.01,TxWx,2013-07-02 15:58:00,
2013-07-02 11:59:00,74.6,73.0,30.81,East,84,8.4,9.6,93,0.00,,,0.01,TxWx,2013-07-02 15:59:00,
2013-07-02 12:00:00,76.2,73.0,30.81,East,84,10.5,10.5,91,0.00,,,0.01,TxWx,2013-07-02 16:00:00,
2013-07-02 12:01:00,74.6,73.0,30.81,East,84,6.0,6.9,93,0.00,,,0.01,TxWx,2013-07-02 16:01:00,
2013-07-02 12:02:00,74.6,73.0,30.81,East,83,7.5,8.4,93,0.00,,,0.01,TxWx,2013-07-02 16:02:00,
2013-07-02 12:03:00,74.5,73.0,30.81,East,84,3.3,3.9,93,0.00,,,0.01,TxWx,2013-07-02 16:03:00,
2013-07-02 12:04:00,74.4,72.0,30.81,East,83,9.9,10.5,93,0.00,,,0.01,TxWx,2013-07-02 16:04:00,
2013-07-02 12:05:00,76.3,73.0,30.81,East,84,10.5,10.8,91,0.00,,,0.01,TxWx,2013-07-02 16:05:00,
2013-07-02 12:06:00,74.4,72.0,30.81,East,83,8.1,8.1,93,0.00,,,0.01,TxWx,2013-07-02 16:06:00,
2013-07-02 12:07:00,74.5,72.0,30.81,East,83,6.3,6.3,93,0.00,,,0.01,TxWx,2013-07-02 16:07:00,
2013-07-02 12:08:00,74.4,72.0,30.81,East,83,6.6,7.2,93,0.00,,,0.01,TxWx,2013-07-02 16:08:00,
2013-07-02 12:09:00,74.5,72.0,30.81,East,84,5.1,5.4,93,0.00,,,0.01,TxWx,2013-07-02 16:09:00,
2013-07-02 12:10:00,76.4,73.0,30.81,East,84,11.1,12.3,91,0.00,,,0.01,TxWx,2013-07-02 16:10:00,
2013-07-02 12:11:00,74.5,72.0,30.81,East,83,6.3,6.6,93,0.00,,,0.01,TxWx,2013-07-02 16:11:00,
2013-07-02 12:13:00,74.3,72.0,30.81,East,83,5.7,6.0,93,0.00,,,0.01,TxWx,2013-07-02 16:13:00,
2013-07-02 12:14:00,74.2,72.0,30.81,East,83,7.8,7.8,93,0.00,,,0.01,TxWx,2013-07-02 16:14:00,
2013-07-02 12:15:00,74.4,72.0,30.81,East,84,3.3,4.2,94,0.00,,,0.01,TxWx,2013-07-02 16:15:00,
2013-07-02 12:16:00,76.4,73.0,30.81,East,84,5.7,5.7,91,0.00,,,0.01,TxWx,2013-07-02 16:16:00,
2013-07-02 12:17:00,74.4,72.0,30.81,East,83,6.0,6.6,94,0.00,,,0.01,TxWx,2013-07-02 16:17:00,
2013-07-02 12:18:00,74.3,72.0,30.81,East,83,5.7,6.0,94,0.00,,,0.01,TxWx,2013-07-02 16:18:00,
2013-07-02 12:20:00,74.3,72.0,30.81,East,83,4.2,5.4,94,0.00,,,0.01,TxWx,2013-07-02 16:20:00,
2013-07-02 12:21:00,76.3,73.0,30.81,East,84,5.4,5.4,92,0.00,,,0.01,TxWx,2013-07-02 16:21:00,
2013-07-02 12:23:00,74.2,72.0,30.81,East,84,7.2,7.5,94,0.00,,,0.01,TxWx,2013-07-02 16:23:00,
2013-07-02 12:24:00,74.2,72.0,30.81,East,84,3.6,4.2,94,0.00,,,0.01,TxWx,2013-07-02 16:24:00,
2013-07-02 12:25:00,74.2,72.0,30.81,East,84,6.6,6.6,94,0.00,,,0.01,TxWx,2013-07-02 16:25:00,
2013-07-02 12:26:00,76.4,73.0,30.81,East,84,3.0,3.0,92,0.00,,,0.01,TxWx,2013-07-02 16:26:00,
2013-07-02 12:27:00,74.2,72.0,30.81,East,84,8.1,10.5,94,0.00,,,0.01,TxWx,2013-07-02 16:27:00,
2013-07-02 12:28:00,74.1,72.0,30.81,East,83,6.9,6.9,94,0.00,,,0.01,TxWx,2013-07-02 16:28:00,
2013-07-02 12:29:00,74.2,72.0,30.81,East,83,5.7,5.7,94,0.00,,,0.01,TxWx,2013-07-02 16:29:00,
2013-07-02 12:30:00,74.2,72.0,30.82,East,83,4.2,4.8,94,0.00,,,0.01,TxWx,2013-07-02 16:30:00,
2013-07-02 12:31:00,76.2,73.0,30.81,East,84,5.4,6.9,91,0.00,,,0.01,TxWx,2013-07-02 16:31:00,
2013-07-02 12:32:00,74.2,72.0,30.82,East,84,7.5,7.5,94,0.00,,,0.01,TxWx,2013-07-02 16:32:00,
2013-07-02 12:33:00,74.1,72.0,30.82,East,84,8.4,8.7,94,0.00,,,0.01,TxWx,2013-07-02 16:33:00,
2013-07-02 12:34:00,74.2,72.0,30.82,East,84,4.5,4.8,94,0.00,,,0.01,TxWx,2013-07-02 16:34:00,
2013-07-02 12:36:00,76.5,73.0,30.81,East,83,6.6,6.6,92,0.00,,,0.01,TxWx,2013-07-02 16:36:00,
2013-07-02 12:37:00,74.1,72.0,30.81,East,83,6.3,6.9,94,0.00,,,0.01,TxWx,2013-07-02 16:37:00,
2013-07-02 12:38:00,74.1,72.0,30.81,East,83,5.1,5.4,94,0.00,,,0.01,TxWx,2013-07-02 16:38:00,
2013-07-02 12:39:00,74.0,72.0,30.81,East,83,6.9,7.5,94,0.00,,,0.01,TxWx,2013-07-02 16:39:00,
2013-07-02 12:40:00,74.0,72.0,30.81,East,83,6.9,7.8,94,0.00,,,0.01,TxWx,2013-07-02 16:40:00,
2013-07-02 12:41:00,76.7,74.0,30.81,East,84,6.9,6.9,91,0.00,,,0.01,TxWx,2013-07-02 16:41:00,
2013-07-02 12:42:00,74.0,72.0,30.81,East,83,6.0,8.1,94,0.00,,,0.01,TxWx,2013-07-02 16:42:00,
2013-07-02 12:43:00,74.0,72.0,30.81,East,84,9.9,9.9,94,0.00,,,0.01,TxWx,2013-07-02 16:43:00,
2013-07-02 12:44:00,74.0,72.0,30.81,East,83,6.0,7.5,94,0.00,,,0.01,TxWx,2013-07-02 16:44:00,
2013-07-02 12:45:00,74.0,72.0,30.82,East,83,7.5,7.5,95,0.00,,,0.01,TxWx,2013-07-02 16:45:00,
2013-07-02 12:47:00,76.8,74.0,30.81,East,84,6.9,8.1,90,0.00,,,0.01,TxWx,2013-07-02 16:47:00,
2013-07-02 12:48:00,74.0,72.0,30.82,East,84,7.5,7.8,95,0.00,,,0.01,TxWx,2013-07-02 16:48:00,
2013-07-02 12:50:00,74.0,72.0,30.82,East,83,7.2,7.2,95,0.00,,,0.01,TxWx,2013-07-02 16:50:00,
2013-07-02 12:51:00,74.0,72.0,30.82,East,83,6.9,7.5,95,0.00,,,0.01,TxWx,2013-07-02 16:51:00,
2013-07-02 12:52:00,76.8,74.0,30.81,East,84,15.3,15.9,90,0.00,,,0.01,TxWx,2013-07-02 16:52:00,
2013-07-02 12:53:00,73.9,72.0,30.82,East,83,12.3,12.3,95,0.00,,,0.01,TxWx,2013-07-02 16:53:00,
2013-07-02 12:54:00,73.9,72.0,30.82,East,83,6.0,6.0,95,0.00,,,0.01,TxWx,2013-07-02 16:54:00,
2013-07-02 12:55:00,73.9,72.0,30.82,East,83,11.7,11.7,95,0.00,,,0.01,TxWx,2013-07-02 16:55:00,
2013-07-02 12:56:00,73.9,72.0,30.82,East,83,12.6,13.5,95,0.00,,,0.01,TxWx,2013-07-02 16:56:00,
2013-07-02 12:57:00,77.5,74.0,30.81,East,83,3.3,3.3,89,0.00,,,0.01,TxWx,2013-07-02 16:57:00,
2013-07-02 12:59:00,73.9,72.0,30.82,East,83,5.7,6.0,95,0.00,,,0.01,TxWx,2013-07-02 16:59:00,
2013-07-02 13:01:00,74.0,72.0,30.82,East,83,4.2,4.2,95,0.00,,,0.01,TxWx,2013-07-02 17:01:00,
2013-07-02 13:02:00,77.4,73.0,30.81,East,84,8.7,10.2,88,0.00,,,0.01,TxWx,2013-07-02 17:02:00,
2013-07-02 13:03:00,73.9,72.0,30.82,East,84,4.5,4.5,95,0.00,,,0.01,TxWx,2013-07-02 17:03:00,
2013-07-02 13:04:00,73.9,72.0,30.82,East,84,12.0,12.0,95,0.00,,,0.01,TxWx,2013-07-02 17:04:00,
2013-07-02 13:05:00,73.9,72.0,30.82,East,84,8.7,8.7,95,0.00,,,0.01,TxWx,2013-07-02 17:05:00,
2013-07-02 13:06:00,73.9,72.0,30.82,East,83,7.5,8.7,95,0.00,,,0.01,TxWx,2013-07-02 17:06:00,
2013-07-02 13:07:00,77.3,73.0,30.80,East,84,12.0,12.0,88,0.00,,,0.01,TxWx,2013-07-02 17:07:00,
2013-07-02 13:08:00,73.9,72.0,30.82,East,83,11.1,11.4,95,0.00,,,0.01,TxWx,2013-07-02 17:08:00,
2013-07-02 13:09:00,73.9,72.0,30.82,East,83,5.7,5.7,95,0.00,,,0.01,TxWx,2013-07-02 17:09:00,
2013-07-02 13:10:00,73.9,72.0,30.82,East,84,5.4,5.7,95,0.00,,,0.01,TxWx,2013-07-02 17:10:00,
2013-07-02 13:11:00,73.9,72.0,30.82,East,83,6.9,8.1,95,0.00,,,0.01,TxWx,2013-07-02 17:11:00,
2013-07-02 13:12:00,74.0,72.0,30.82,East,84,6.0,6.3,95,0.00,,,0.01,TxWx,2013-07-02 17:12:00,
2013-07-02 13:13:00,77.5,74.0,30.80,East,84,6.9,6.9,88,0.00,,,0.01,TxWx,2013-07-02 17:13:00,
2013-07-02 13:14:00,73.9,72.0,30.82,East,83,6.0,6.0,95,0.00,,,0.01,TxWx,2013-07-02 17:14:00,
2013-07-02 13:15:00,74.0,72.0,30.82,East,83,6.3,6.3,95,0.00,,,0.01,TxWx,2013-07-02 17:15:00,
2013-07-02 13:16:00,73.9,72.0,30.82,East,83,7.2,8.1,95,0.00,,,0.01,TxWx,2013-07-02 17:16:00,
2013-07-02 13:17:00,73.9,72.0,30.82,East,83,9.9,10.2,95,0.00,,,0.01,TxWx,2013-07-02 17:17:00,
2013-07-02 13:18:00,77.6,74.0,30.81,East,84,9.6,9.6,88,0.00,,,0.01,TxWx,2013-07-02 17:18:00,
2013-07-02 13:19:00,74.0,72.0,30.83,East,84,7.8,8.4,95,0.00,,,0.01,TxWx,2013-07-02 17:19:00,
2013-07-02 13:20:00,74.0,72.0,30.83,East,83,7.8,8.1,95,0.00,,,0.01,TxWx,2013-07-02 17:20:00,
2013-07-02 13:21:00,73.9,72.0,30.83,East,83,10.2,10.5,95,0.00,,,0.01,TxWx,2013-07-02 17:21:00,
2013-07-02 13:22:00,73.9,72.0,30.83,East,83,5.1,5.1,95,0.00,,,0.01,TxWx,2013-07-02 17:22:00,
2013-07-02 13:23:00,77.3,73.0,30.80,East,83,12.6,13.8,88,0.00,,,0.01,TxWx,2013-07-02 17:23:00,
2013-07-02 13:24:00,74.0,72.0,30.83,East,84,7.5,7.5,95,0.00,,,0.01,TxWx,2013-07-02 17:24:00,
2013-07-02 13:25:00,73.9,72.0,30.83,East,84,6.0,7.5,95,0.00,,,0.01,TxWx,2013-07-02 17:25:00,
2013-07-02 13:26:00,73.9,72.0,30.83,East,83,10.2,10.2,95,0.00,,,0.01,TxWx,2013-07-02 17:26:00,
2013-07-02 13:27:00,73.9,72.0,30.83,East,84,5.1,6.6,95,0.00,,,0.01,TxWx,2013-07-02 17:27:00,
2013-07-02 13:28:00,77.3,73.0,30.80,East,84,8.1,9.0,88,0.00,,,0.01,TxWx,2013-07-02 17:28:00,
2013-07-02 13:29:00,74.0,72.0,30.83,East,84,5.7,6.6,95,0.00,,,0.01,TxWx,2013-07-02 17:29:00,
2013-07-02 13:30:00,74.0,72.0,30.83,East,84,4.2,5.7,95,0.00,,,0.01,TxWx,2013-07-02 17:30:00,
2013-07-02 13:31:00,73.9,72.0,30.83,East,83,5.4,6.3,95,0.00,,,0.01,TxWx,2013-07-02 17:31:00,
2013-07-02 13:32:00,74.0,72.0,30.83,East,84,7.5,7.5,95,0.00,,,0.01,TxWx,2013-07-02 17:32:00,
2013-07-02 13:33:00,77.7,74.0,30.80,East,83,5.4,5.4,87,0.00,,,0.01,TxWx,2013-07-02 17:33:00,
2013-07-02 13:34:00,73.9,72.0,30.83,East,84,11.7,12.3,95,0.00,,,0.01,TxWx,2013-07-02 17:34:00,
2013-07-02 13:35:00,73.9,72.0,30.83,East,84,9.3,10.5,95,0.00,,,0.01,TxWx,2013-07-02 17:35:00,
2013-07-02 13:36:00,74.0,72.0,30.83,East,84,7.2,8.7,95,0.00,,,0.01,TxWx,2013-07-02 17:36:00,
2013-07-02 13:37:00,74.0,72.0,30.84,East,84,6.9,7.8,95,0.00,,,0.01,TxWx,2013-07-02 17:37:00,
2013-07-02 13:38:00,74.0,72.0,30.83,East,84,5.1,5.4,95,0.00,,,0.01,TxWx,2013-07-02 17:38:00,
2013-07-02 13:39:00,77.5,73.0,30.80,East,84,9.9,9.9,87,0.00,,,0.01,TxWx,2013-07-02 17:39:00,
2013-07-02 13:40:00,74.0,72.0,30.84,East,83,4.8,4.8,95,0.00,,,0.01,TxWx,2013-07-02 17:40:00,
2013-07-02 13:41:00,74.0,72.0,30.84,East,84,6.3,7.5,95,0.00,,,0.01,TxWx,2013-07-02 17:41:00,
2013-07-02 13:42:00,74.0,72.0,30.84,East,84,6.6,7.5,95,0.00,,,0.01,TxWx,2013-07-02 17:42:00,
2013-07-02 13:44:00,77.8,73.0,30.80,East,84,9.0,10.5,86,0.00,,,0.01,TxWx,2013-07-02 17:44:00,
2013-07-02 13:46:00,74.0,72.0,30.84,East,84,6.3,6.9,95,0.00,,,0.01,TxWx,2013-07-02 17:46:00,
2013-07-02 13:47:00,74.0,72.0,30.84,East,83,7.5,7.8,95,0.00,,,0.01,TxWx,2013-07-02 17:47:00,
2013-07-02 13:48:00,74.0,72.0,30.84,East,83,8.7,8.7,95,0.00,,,0.01,TxWx,2013-07-02 17:48:00,
2013-07-02 13:49:00,78.3,74.0,30.80,East,83,8.4,8.4,87,0.00,,,0.01,TxWx,2013-07-02 17:49:00,
2013-07-02 13:51:00,74.1,72.0,30.84,East,84,3.9,4.2,95,0.00,,,0.01,TxWx,2013-07-02 17:51:00,
2013-07-02 13:52:00,74.0,72.0,30.84,East,83,5.4,5.7,95,0.00,,,0.01,TxWx,2013-07-02 17:52:00,
2013-07-02 13:53:00,74.0,72.0,30.84,East,83,6.3,6.3,95,0.00,,,0.01,TxWx,2013-07-02 17:53:00,
2013-07-02 13:54:00,78.4,73.0,30.80,East,83,10.2,10.2,85,0.00,,,0.01,TxWx,2013-07-02 17:54:00,
2013-07-02 13:55:00,74.0,72.0,30.84,East,83,5.4,5.4,95,0.00,,,0.01,TxWx,2013-07-02 17:55:00,
2013-07-02 13:56:00,74.0,72.0,30.84,East,84,3.3,3.3,95,0.00,,,0.01,TxWx,2013-07-02 17:56:00,
2013-07-02 13:57:00,74.0,72.0,30.84,East,83,4.8,5.4,95,0.00,,,0.01,TxWx,2013-07-02 17:57:00,
2013-07-02 13:58:00,74.1,72.0,30.84,East,84,4.2,4.2,95,0.00,,,0.01,TxWx,2013-07-02 17:58:00,
2013-07-02 13:59:00,78.3,73.0,30.80,East,84,11.1,12.6,85,0.00,,,0.01,TxWx,2013-07-02 17:59:00,
2013-07-02 14:00:00,74.0,72.0,30.84,East,83,8.4,8.4,95,0.00,,,0.01,TxWx,2013-07-02 18:00:00,
2013-07-02 14:01:00,74.1,72.0,30.84,East,84,7.2,7.2,95,0.00,,,0.01,TxWx,2013-07-02 18:01:00,
2013-07-02 14:02:00,74.1,72.0,30.84,East,83,4.2,4.5,95,0.00,,,0.01,TxWx,2013-07-02 18:02:00,
2013-07-02 14:03:00,74.1,72.0,30.84,East,83,0.6,0.9,95,0.00,,,0.01,TxWx,2013-07-02 18:03:00,
2013-07-02 14:04:00,78.4,73.0,30.80,East,84,9.3,11.4,85,0.00,,,0.01,TxWx,2013-07-02 18:04:00,
2013-07-02 14:05:00,74.1,72.0,30.84,East,83,3.6,3.6,94,0.00,,,0.01,TxWx,2013-07-02 18:05:00,
2013-07-02 14:06:00,74.1,72.0,30.84,East,83,3.3,3.9,95,0.00,,,0.01,TxWx,2013-07-02 18:06:00,
2013-07-02 14:07:00,74.1,72.0,30.84,East,84,5.4,5.7,94,0.00,,,0.01,TxWx,2013-07-02 18:07:00,
2013-07-02 14:08:00,74.1,72.0,30.83,East,84,8.4,8.7,94,0.00,,,0.01,TxWx,2013-07-02 18:08:00,
2013-07-02 14:09:00,78.6,74.0,30.79,East,83,8.7,9.9,85,0.00,,,0.01,TxWx,2013-07-02 18:09:00,
2013-07-02 14:10:00,74.1,72.0,30.84,East,84,4.8,5.1,94,0.00,,,0.01,TxWx,2013-07-02 18:10:00,
2013-07-02 14:12:00,74.1,72.0,30.83,East,83,4.8,4.8,94,0.00,,,0.01,TxWx,2013-07-02 18:12:00,
2013-07-02 14:13:00,74.1,72.0,30.83,East,83,2.7,3.9,94,0.00,,,0.01,TxWx,2013-07-02 18:13:00,
2013-07-02 14:14:00,74.1,72.0,30.83,East,83,6.9,6.9,94,0.00,,,0.01,TxWx,2013-07-02 18:14:00,
2013-07-02 14:15:00,78.3,73.0,30.79,East,84,5.4,7.5,86,0.00,,,0.01,TxWx,2013-07-02 18:15:00,
2013-07-02 14:16:00,74.1,72.0,30.83,East,84,8.1,8.4,94,0.00,,,0.01,TxWx,2013-07-02 18:16:00,
2013-07-02 14:17:00,74.2,72.0,30.84,East,84,7.2,7.2,94,0.00,,,0.01,TxWx,2013-07-02 18:17:00,
2013-07-02 14:18:00,74.2,72.0,30.84,East,84,9.0,9.0,94,0.00,,,0.01,TxWx,2013-07-02 18:18:00,
2013-07-02 14:19:00,74.2,72.0,30.84,East,83,8.7,9.3,94,0.00,,,0.01,TxWx,2013-07-02 18:19:00,
2013-07-02 14:20:00,78.0,73.0,30.79,East,84,11.7,11.7,86,0.00,,,0.01,TxWx,2013-07-02 18:20:00,
2013-07-02 14:25:00,77.9,73.0,30.79,East,83,9.6,9.6,86,0.00,,,0.01,TxWx,2013-07-02 18:25:00,
2013-07-02 14:30:00,77.8,73.0,30.79,East,84,6.3,7.5,86,0.00,,,0.01,TxWx,2013-07-02 18:30:00,
2013-07-02 14:35:00,78.1,73.0,30.79,East,84,12.0,14.7,86,0.00,,,0.01,TxWx,2013-07-02 18:35:00,
2013-07-02 14:37:00,74.2,72.0,30.83,East,83,3.9,3.9,94,0.00,,,0.01,TxWx,2013-07-02 18:37:00,
2013-07-02 14:38:00,74.2,72.0,30.83,East,84,3.0,3.0,94,0.00,,,0.01,TxWx,2013-07-02 18:38:00,
2013-07-02 14:39:00,74.2,72.0,30.83,East,84,3.9,4.2,94,0.00,,,0.01,TxWx,2013-07-02 18:39:00,
2013-07-02 14:40:00,78.7,74.0,30.79,East,83,6.3,7.5,85,0.00,,,0.01,TxWx,2013-07-02 18:40:00,
2013-07-02 14:41:00,74.2,72.0,30.83,East,83,4.5,4.5,94,0.00,,,0.01,TxWx,2013-07-02 18:41:00,
2013-07-02 14:42:00,74.2,72.0,30.83,East,84,4.5,4.8,94,0.00,,,0.01,TxWx,2013-07-02 18:42:00,
2013-07-02 14:43:00,74.2,72.0,30.83,East,84,6.0,6.0,94,0.00,,,0.01,TxWx,2013-07-02 18:43:00,
2013-07-02 14:44:00,74.2,72.0,30.83,East,84,5.1,5.4,94,0.00,,,0.01,TxWx,2013-07-02 18:44:00,
2013-07-02 14:45:00,78.8,74.0,30.79,East,84,10.8,11.4,84,0.00,,,0.01,TxWx,2013-07-02 18:45:00,
2013-07-02 14:48:00,74.2,72.0,30.83,East,83,2.4,3.0,94,0.00,,,0.01,TxWx,2013-07-02 18:48:00,
2013-07-02 14:49:00,74.2,72.0,30.83,East,83,4.5,4.5,94,0.00,,,0.01,TxWx,2013-07-02 18:49:00,
2013-07-02 14:50:00,78.7,74.0,30.78,East,83,9.0,9.3,84,0.00,,,0.01,TxWx,2013-07-02 18:50:00,
2013-07-02 14:51:00,74.1,72.0,30.83,East,84,4.8,5.7,94,0.00,,,0.01,TxWx,2013-07-02 18:51:00,
2013-07-02 14:54:00,74.2,72.0,30.83,East,83,2.7,2.7,94,0.00,,,0.01,TxWx,2013-07-02 18:54:00,
2013-07-02 14:55:00,74.2,72.0,30.83,East,84,3.0,3.3,94,0.00,,,0.01,TxWx,2013-07-02 18:55:00,
2013-07-02 14:56:00,78.4,72.0,30.78,East,84,16.8,17.7,83,0.00,,,0.01,TxWx,2013-07-02 18:56:00,
2013-07-02 14:57:00,74.1,72.0,30.83,East,84,7.2,8.1,94,0.00,,,0.01,TxWx,2013-07-02 18:57:00,
2013-07-02 14:59:00,74.1,72.0,30.83,East,83,5.7,5.7,94,0.00,,,0.01,TxWx,2013-07-02 18:59:00,
2013-07-02 15:00:00,74.1,72.0,30.83,East,83,6.0,6.0,94,0.00,,,0.01,TxWx,2013-07-02 19:00:00,
2013-07-02 15:01:00,78.5,73.0,30.78,East,84,9.9,10.2,85,0.00,,,0.01,TxWx,2013-07-02 19:01:00,
2013-07-02 15:02:00,74.1,72.0,30.83,East,83,3.9,4.5,94,0.00,,,0.01,TxWx,2013-07-02 19:02:00,
2013-07-02 15:03:00,74.1,72.0,30.83,East,83,3.9,3.9,94,0.00,,,0.01,TxWx,2013-07-02 19:03:00,
2013-07-02 15:05:00,74.1,72.0,30.83,East,84,4.8,5.4,94,0.00,,,0.01,TxWx,2013-07-02 19:05:00,
2013-07-02 15:06:00,78.6,74.0,30.78,East,84,5.1,5.4,86,0.00,,,0.01,TxWx,2013-07-02 19:06:00,
2013-07-02 15:07:00,74.1,72.0,30.83,East,84,4.2,4.2,94,0.00,,,0.01,TxWx,2013-07-02 19:07:00,
2013-07-02 15:09:00,74.1,72.0,30.83,East,84,6.3,6.6,94,0.00,,,0.01,TxWx,2013-07-02 19:09:00,
2013-07-02 15:11:00,78.3,73.0,30.78,East,84,7.8,8.4,85,0.00,,,0.01,TxWx,2013-07-02 19:11:00,
2013-07-02 15:12:00,74.0,72.0,30.83,East,83,4.5,5.1,94,0.00,,,0.01,TxWx,2013-07-02 19:12:00,
2013-07-02 15:13:00,73.9,72.0,30.83,East,83,10.5,10.5,94,0.00,,,0.01,TxWx,2013-07-02 19:13:00,
2013-07-02 15:14:00,73.9,72.0,30.83,East,83,8.4,8.7,94,0.00,,,0.01,TxWx,2013-07-02 19:14:00,
2013-07-02 15:16:00,73.8,72.0,30.83,East,83,9.0,9.6,94,0.00,,,0.01,TxWx,2013-07-02 19:16:00,
2013-07-02 15:17:00,78.2,73.0,30.78,East,84,13.5,14.1,85,0.00,,,0.01,TxWx,2013-07-02 19:17:00,
2013-07-02 15:18:00,73.9,72.0,30.83,East,83,4.8,5.7,94,0.00,,,0.01,TxWx,2013-07-02 19:18:00,
2013-07-02 15:20:00,73.8,72.0,30.83,East,83,7.5,7.8,94,0.00,,,0.01,TxWx,2013-07-02 19:20:00,
2013-07-02 15:21:00,73.8,72.0,30.83,East,83,6.9,7.2,94,0.00,,,0.01,TxWx,2013-07-02 19:21:00,
2013-07-02 15:22:00,78.3,73.0,30.78,East,84,10.2,10.2,86,0.00,,,0.01,TxWx,2013-07-02 19:22:00,
2013-07-02 15:23:00,73.7,72.0,30.83,East,83,8.1,9.3,94,0.00,,,0.01,TxWx,2013-07-02 19:23:00,
2013-07-02 15:24:00,73.7,72.0,30.83,East,83,6.3,6.9,94,0.00,,,0.01,TxWx,2013-07-02 19:24:00,
2013-07-02 15:25:00,73.7,72.0,30.83,East,84,2.1,2.1,94,0.00,,,0.01,TxWx,2013-07-02 19:25:00,
2013-07-02 15:26:00,73.8,72.0,30.83,East,83,5.7,5.7,94,0.00,,,0.01,TxWx,2013-07-02 19:26:00,
2013-07-02 15:27:00,78.4,73.0,30.78,East,83,9.9,9.9,86,0.00,,,0.01,TxWx,2013-07-02 19:27:00,
2013-07-02 15:28:00,73.7,72.0,30.83,East,83,3.3,3.3,95,0.00,,,0.01,TxWx,2013-07-02 19:28:00,
2013-07-02 15:29:00,73.8,72.0,30.83,East,83,2.1,2.4,95,0.00,,,0.01,TxWx,2013-07-02 19:29:00,
2013-07-02 15:30:00,73.7,72.0,30.83,East,83,9.3,10.8,95,0.00,,,0.01,TxWx,2013-07-02 19:30:00,
2013-07-02 15:31:00,73.6,72.0,30.83,East,83,7.2,9.0,95,0.00,,,0.01,TxWx,2013-07-02 19:31:00,
2013-07-02 15:32:00,78.0,73.0,30.78,East,83,3.6,3.6,86,0.00,,,0.01,TxWx,2013-07-02 19:32:00,
2013-07-02 15:33:00,73.6,72.0,30.83,East,83,7.5,7.5,95,0.00,,,0.01,TxWx,2013-07-02 19:33:00,
2013-07-02 15:34:00,73.6,72.0,30.83,East,83,8.4,8.4,95,0.00,,,0.01,TxWx,2013-07-02 19:34:00,
2013-07-02 15:35:00,73.7,72.0,30.83,East,83,3.9,4.5,95,0.00,,,0.01,TxWx,2013-07-02 19:35:00,
2013-07-02 15:36:00,73.6,72.0,30.84,East,83,7.8,7.8,95,0.00,,,0.01,TxWx,2013-07-02 19:36:00,
2013-07-02 15:37:00,77.9,74.0,30.78,East,84,9.9,9.9,87,0.00,,,0.01,TxWx,2013-07-02 19:37:00,
2013-07-02 15:38:00,73.6,72.0,30.84,East,83,6.3,6.3,95,0.00,,,0.01,TxWx,2013-07-02 19:38:00,
2013-07-02 15:39:00,73.6,72.0,30.84,East,83,6.0,6.9,95,0.00,,,0.01,TxWx,2013-07-02 19:39:00,
2013-07-02 15:40:00,73.6,72.0,30.83,East,83,5.1,5.1,95,0.00,,,0.01,TxWx,2013-07-02 19:40:00,
2013-07-02 15:41:00,73.6,72.0,30.83,East,84,3.3,4.2,95,0.00,,,0.01,TxWx,2013-07-02 19:41:00,
2013-07-02 15:42:00,78.0,74.0,30.78,East,84,8.7,8.7,87,0.00,,,0.01,TxWx,2013-07-02 19:42:00,
2013-07-02 15:43:00,73.5,72.0,30.83,East,83,4.2,4.2,95,0.00,,,0.01,TxWx,2013-07-02 19:43:00,
2013-07-02 15:44:00,73.4,71.0,30.83,East,83,5.7,5.7,95,0.00,,,0.01,TxWx,2013-07-02 19:44:00,
2013-07-02 15:45:00,73.3,71.0,30.83,East,83,3.9,4.2,95,0.00,,,0.01,TxWx,2013-07-02 19:45:00,
2013-07-02 15:46:00,73.4,71.0,30.83,East,84,2.4,3.3,95,0.00,,,0.01,TxWx,2013-07-02 19:46:00,
2013-07-02 15:47:00,78.0,74.0,30.78,East,83,8.7,9.3,87,0.00,,,0.01,TxWx,2013-07-02 19:47:00,
2013-07-02 15:48:00,73.5,72.0,30.83,East,84,1.8,1.8,95,0.00,,,0.01,TxWx,2013-07-02 19:48:00,
2013-07-02 15:49:00,73.4,71.0,30.83,East,83,8.1,8.1,95,0.00,,,0.01,TxWx,2013-07-02 19:49:00,
2013-07-02 15:50:00,73.4,71.0,30.83,East,83,6.3,6.3,95,0.00,,,0.01,TxWx,2013-07-02 19:50:00,
2013-07-02 15:51:00,73.4,71.0,30.83,East,84,5.1,5.7,95,0.00,,,0.01,TxWx,2013-07-02 19:51:00,
2013-07-02 15:52:00,78.3,73.0,30.78,East,84,11.1,11.1,86,0.00,,,0.01,TxWx,2013-07-02 19:52:00,
2013-07-02 15:53:00,73.4,71.0,30.83,East,84,3.6,3.6,95,0.00,,,0.02,TxWx,2013-07-02 19:53:00,
2013-07-02 15:54:00,73.4,71.0,30.83,East,84,0.0,0.0,95,0.00,,,0.02,TxWx,2013-07-02 19:54:00,
2013-07-02 15:55:00,73.3,71.0,30.83,East,84,4.5,4.5,95,0.00,,,0.02,TxWx,2013-07-02 19:55:00,
2013-07-02 15:56:00,73.2,71.0,30.83,East,83,3.6,3.6,95,0.00,,,0.02,TxWx,2013-07-02 19:56:00,
2013-07-02 15:57:00,73.1,71.0,30.83,East,83,6.0,6.3,95,0.00,,,0.02,TxWx,2013-07-02 19:57:00,
2013-07-02 15:58:00,78.5,73.0,30.78,East,84,9.6,12.3,85,0.00,,,0.01,TxWx,2013-07-02 19:58:00,
2013-07-02 15:59:00,73.0,71.0,30.83,East,83,3.0,3.6,95,0.00,,,0.02,TxWx,2013-07-02 19:59:00,
2013-07-02 16:00:00,72.9,72.0,30.83,East,83,3.0,3.0,96,0.06,,,0.00,TxWx,2013-07-02 20:00:00,
2013-07-02 16:01:00,72.9,72.0,30.83,East,83,3.9,4.5,96,0.06,,,0.00,TxWx,2013-07-02 20:01:00,
2013-07-02 16:02:00,72.9,72.0,30.83,East,83,3.3,3.3,96,0.06,,,0.00,TxWx,2013-07-02 20:02:00,
2013-07-02 16:03:00,78.5,73.0,30.77,East,84,9.0,9.0,84,0.00,,,0.01,TxWx,2013-07-02 20:03:00,
2013-07-02 16:04:00,72.8,72.0,30.83,East,83,4.5,4.5,96,0.06,,,0.00,TxWx,2013-07-02 20:04:00,
2013-07-02 16:05:00,72.8,72.0,30.83,East,83,2.7,3.0,96,0.06,,,0.00,TxWx,2013-07-02 20:05:00,
2013-07-02 16:06:00,72.8,72.0,30.83,East,83,3.3,3.3,96,0.06,,,0.00,TxWx,2013-07-02 20:06:00,
2013-07-02 16:07:00,72.9,72.0,30.83,East,84,3.6,3.6,96,0.06,,,0.00,TxWx,2013-07-02 20:07:00,
2013-07-02 16:08:00,78.6,74.0,30.77,East,84,6.9,6.9,84,0.00,,,0.01,TxWx,2013-07-02 20:08:00,
2013-07-02 16:09:00,72.8,72.0,30.83,East,83,2.7,2.7,96,0.06,,,0.00,TxWx,2013-07-02 20:09:00,
2013-07-02 16:10:00,72.8,72.0,30.83,East,84,3.9,3.9,96,0.00,,,0.00,TxWx,2013-07-02 20:10:00,
2013-07-02 16:11:00,72.7,72.0,30.83,East,83,3.9,4.2,97,0.00,,,0.00,TxWx,2013-07-02 20:11:00,
2013-07-02 16:12:00,72.7,72.0,30.82,East,83,3.6,3.6,97,0.00,,,0.00,TxWx,2013-07-02 20:12:00,
2013-07-02 16:13:00,72.7,72.0,30.82,East,83,4.8,4.8,97,0.00,,,0.00,TxWx,2013-07-02 20:13:00,
2013-07-02 16:14:00,78.7,73.0,30.77,East,84,8.1,12.0,83,0.00,,,0.01,TxWx,2013-07-02 20:14:00,
2013-07-02 16:15:00,72.6,72.0,30.83,East,83,4.2,4.2,97,0.00,,,0.00,TxWx,2013-07-02 20:15:00,
2013-07-02 16:16:00,72.6,72.0,30.82,East,83,3.9,3.9,97,0.00,,,0.00,TxWx,2013-07-02 20:16:00,
2013-07-02 16:17:00,72.7,72.0,30.83,East,83,3.6,3.6,97,0.00,,,0.00,TxWx,2013-07-02 20:17:00,
2013-07-02 16:18:00,72.7,72.0,30.82,East,83,3.0,3.0,97,0.00,,,0.00,TxWx,2013-07-02 20:18:00,
2013-07-02 16:19:00,79.0,74.0,30.77,East,84,10.2,10.2,84,0.00,,,0.01,TxWx,2013-07-02 20:19:00,
2013-07-02 16:20:00,72.7,72.0,30.82,East,84,0.9,1.2,97,0.06,,,0.01,TxWx,2013-07-02 20:20:00,
2013-07-02 16:21:00,72.7,72.0,30.82,East,83,0.3,0.6,97,0.06,,,0.01,TxWx,2013-07-02 20:21:00,
2013-07-02 16:22:00,72.7,72.0,30.82,East,83,1.5,1.5,97,0.06,,,0.01,TxWx,2013-07-02 20:22:00,
2013-07-02 16:23:00,72.7,72.0,30.82,East,83,1.5,1.8,97,0.06,,,0.01,TxWx,2013-07-02 20:23:00,
2013-07-02 16:24:00,79.0,74.0,30.77,East,84,7.8,7.8,84,0.00,,,0.01,TxWx,2013-07-02 20:24:00,
2013-07-02 16:25:00,72.7,72.0,30.82,East,83,0.9,0.9,97,0.06,,,0.01,TxWx,2013-07-02 20:25:00,
2013-07-02 16:26:00,72.7,72.0,30.82,East,83,1.8,1.8,97,0.06,,,0.01,TxWx,2013-07-02 20:26:00,
2013-07-02 16:27:00,72.7,72.0,30.82,East,83,2.4,2.7,97,0.06,,,0.01,TxWx,2013-07-02 20:27:00,
2013-07-02 16:28:00,72.7,72.0,30.82,East,83,1.5,1.8,97,0.06,,,0.01,TxWx,2013-07-02 20:28:00,
2013-07-02 16:29:00,79.0,74.0,30.77,East,83,12.0,12.9,84,0.00,,,0.01,TxWx,2013-07-02 20:29:00,
2013-07-02 16:30:00,72.7,72.0,30.82,East,83,0.0,0.0,97,0.00,,,0.01,TxWx,2013-07-02 20:30:00,
2013-07-02 16:31:00,72.7,72.0,30.82,East,83,1.5,1.5,97,0.00,,,0.01,TxWx,2013-07-02 20:31:00,
2013-07-02 16:32:00,72.8,72.0,30.82,East,84,1.8,1.8,97,0.00,,,0.01,TxWx,2013-07-02 20:32:00,
2013-07-02 16:33:00,72.7,72.0,30.82,East,84,2.1,2.1,97,0.00,,,0.01,TxWx,2013-07-02 20:33:00,
2013-07-02 16:34:00,72.6,72.0,30.82,East,84,1.5,1.8,97,0.00,,,0.01,TxWx,2013-07-02 20:34:00,
2013-07-02 16:35:00,79.5,74.0,30.77,East,83,3.6,3.6,84,0.00,,,0.01,TxWx,2013-07-02 20:35:00,
2013-07-02 16:36:00,72.7,72.0,30.82,East,84,0.9,1.2,97,0.00,,,0.01,TxWx,2013-07-02 20:36:00,
2013-07-02 16:37:00,72.6,72.0,30.82,East,83,1.8,1.8,98,0.00,,,0.01,TxWx,2013-07-02 20:37:00,
2013-07-02 16:38:00,72.6,72.0,30.82,East,84,0.9,0.9,98,0.00,,,0.01,TxWx,2013-07-02 20:38:00,
2013-07-02 16:39:00,72.6,72.0,30.82,East,83,2.1,2.1,97,0.00,,,0.01,TxWx,2013-07-02 20:39:00,
2013-07-02 16:40:00,78.5,72.0,30.77,East,84,11.4,11.4,83,0.00,,,0.01,TxWx,2013-07-02 20:40:00,
2013-07-02 16:41:00,72.6,72.0,30.82,East,83,2.1,2.1,98,0.00,,,0.01,TxWx,2013-07-02 20:41:00,
2013-07-02 16:42:00,72.5,72.0,30.82,East,83,1.8,2.1,98,0.00,,,0.01,TxWx,2013-07-02 20:42:00,
2013-07-02 16:43:00,72.5,72.0,30.82,East,83,2.7,2.7,98,0.00,,,0.01,TxWx,2013-07-02 20:43:00,
2013-07-02 16:44:00,72.5,72.0,30.82,East,83,2.1,2.1,98,0.00,,,0.01,TxWx,2013-07-02 20:44:00,
2013-07-02 16:45:00,78.5,73.0,30.77,East,83,4.5,5.4,83,0.00,,,0.01,TxWx,2013-07-02 20:45:00,
2013-07-02 16:46:00,72.5,72.0,30.82,East,83,1.8,1.8,98,0.00,,,0.01,TxWx,2013-07-02 20:46:00,
2013-07-02 16:47:00,72.5,71.0,30.82,East,83,2.7,2.7,98,0.00,,,0.01,TxWx,2013-07-02 20:47:00,
2013-07-02 16:49:00,72.4,71.0,30.82,East,83,2.1,2.4,98,0.00,,,0.01,TxWx,2013-07-02 20:49:00,
2013-07-02 16:50:00,78.6,73.0,30.77,East,84,6.3,7.5,83,0.00,,,0.01,TxWx,2013-07-02 20:50:00,
2013-07-02 16:51:00,72.3,71.0,30.82,East,83,4.5,4.5,98,0.00,,,0.01,TxWx,2013-07-02 20:51:00,
2013-07-02 16:52:00,72.3,71.0,30.82,East,83,3.0,3.3,98,0.00,,,0.01,TxWx,2013-07-02 20:52:00,
2013-07-02 16:53:00,72.4,71.0,30.82,East,83,3.0,3.0,98,0.00,,,0.01,TxWx,2013-07-02 20:53:00,
2013-07-02 16:54:00,72.3,71.0,30.82,East,83,2.4,2.4,98,0.00,,,0.01,TxWx,2013-07-02 20:54:00,
2013-07-02 16:55:00,78.5,73.0,30.77,East,84,6.0,7.2,83,0.00,,,0.01,TxWx,2013-07-02 20:55:00,
2013-07-02 16:56:00,72.3,71.0,30.82,East,83,1.8,1.8,98,0.00,,,0.01,TxWx,2013-07-02 20:56:00,
2013-07-02 16:57:00,72.3,71.0,30.82,East,83,1.5,1.5,98,0.00,,,0.01,TxWx,2013-07-02 20:57:00,
2013-07-02 16:58:00,72.3,71.0,30.82,East,83,2.1,2.1,98,0.00,,,0.01,TxWx,2013-07-02 20:58:00,
2013-07-02 16:59:00,72.3,71.0,30.82,East,83,2.1,2.4,98,0.00,,,0.01,TxWx,2013-07-02 20:59:00,
2013-07-02 17:00:00,78.6,74.0,30.77,East,84,3.9,4.2,84,0.00,,,0.01,TxWx,2013-07-02 21:00:00,
2013-07-02 17:01:00,72.3,71.0,30.82,East,84,0.6,0.6,98,0.00,,,0.01,TxWx,2013-07-02 21:01:00,
2013-07-02 17:02:00,72.2,71.0,30.82,East,83,2.7,3.0,98,0.00,,,0.01,TxWx,2013-07-02 21:02:00,
2013-07-02 17:03:00,72.3,71.0,30.82,East,83,0.9,1.2,98,0.00,,,0.01,TxWx,2013-07-02 21:03:00,
2013-07-02 17:04:00,72.3,71.0,30.82,East,84,3.0,3.0,98,0.00,,,0.01,TxWx,2013-07-02 21:04:00,
2013-07-02 17:05:00,78.5,73.0,30.77,East,84,9.6,9.9,83,0.00,,,0.01,TxWx,2013-07-02 21:05:00,
2013-07-02 17:06:00,72.2,71.0,30.82,East,83,3.0,3.0,98,0.00,,,0.01,TxWx,2013-07-02 21:06:00,
2013-07-02 17:07:00,72.3,71.0,30.82,East,84,2.4,2.4,98,0.00,,,0.01,TxWx,2013-07-02 21:07:00,
2013-07-02 17:08:00,72.3,71.0,30.82,East,83,3.3,3.3,98,0.00,,,0.01,TxWx,2013-07-02 21:08:00,
2013-07-02 17:09:00,72.2,71.0,30.82,East,83,3.9,4.2,98,0.00,,,0.01,TxWx,2013-07-02 21:09:00,
2013-07-02 17:10:00,78.8,73.0,30.77,East,83,11.7,11.7,82,0.00,,,0.01,TxWx,2013-07-02 21:10:00,
2013-07-02 17:11:00,72.2,71.0,30.82,East,83,3.3,3.3,98,0.00,,,0.01,TxWx,2013-07-02 21:11:00,
2013-07-02 17:12:00,72.3,71.0,30.82,East,83,3.9,3.9,98,0.00,,,0.01,TxWx,2013-07-02 21:12:00,
2013-07-02 17:13:00,72.3,71.0,30.82,East,83,2.7,2.7,98,0.00,,,0.01,TxWx,2013-07-02 21:13:00,
2013-07-02 17:14:00,72.3,71.0,30.82,East,83,3.0,3.0,98,0.00,,,0.01,TxWx,2013-07-02 21:14:00,
2013-07-02 17:15:00,79.2,73.0,30.77,East,83,6.9,6.9,82,0.00,,,0.01,TxWx,2013-07-02 21:15:00,
2013-07-02 17:16:00,72.3,71.0,30.82,East,84,1.8,1.8,98,0.00,,,0.01,TxWx,2013-07-02 21:16:00,
2013-07-02 17:17:00,72.3,71.0,30.82,East,83,3.3,3.3,98,0.00,,,0.01,TxWx,2013-07-02 21:17:00,
2013-07-02 17:19:00,72.3,71.0,30.82,East,83,2.4,2.4,98,0.00,,,0.01,TxWx,2013-07-02 21:19:00,
2013-07-02 17:21:00,78.7,73.0,30.77,East,83,7.2,7.5,83,0.00,,,0.01,TxWx,2013-07-02 21:21:00,
2013-07-02 17:22:00,72.3,71.0,30.83,East,83,2.4,2.4,97,0.00,,,0.01,TxWx,2013-07-02 21:22:00,
2013-07-02 17:24:00,72.2,71.0,30.83,East,83,3.0,3.3,97,0.00,,,0.01,TxWx,2013-07-02 21:24:00,
2013-07-02 17:25:00,78.6,73.0,30.77,East,84,4.2,5.1,83,0.00,,,0.01,TxWx,2013-07-02 21:25:00,
2013-07-02 17:26:00,72.3,71.0,30.83,East,83,0.6,1.2,97,0.00,,,0.01,TxWx,2013-07-02 21:26:00,
2013-07-02 17:27:00,72.3,71.0,30.83,East,83,1.8,2.1,97,0.00,,,0.01,TxWx,2013-07-02 21:27:00,
2013-07-02 17:28:00,72.2,71.0,30.83,East,84,1.8,2.1,97,0.00,,,0.01,TxWx,2013-07-02 21:28:00,
2013-07-02 17:30:00,72.2,71.0,30.83,East,84,1.8,1.8,97,0.00,,,0.01,TxWx,2013-07-02 21:30:00,
2013-07-02 17:31:00,78.6,74.0,30.77,East,83,4.8,5.4,84,0.00,,,0.01,TxWx,2013-07-02 21:31:00,
2013-07-02 17:32:00,72.2,71.0,30.83,East,84,1.8,2.1,97,0.00,,,0.01,TxWx,2013-07-02 21:32:00,
2013-07-02 17:33:00,72.2,71.0,30.83,East,83,2.1,2.4,97,0.00,,,0.01,TxWx,2013-07-02 21:33:00,
2013-07-02 17:34:00,72.2,71.0,30.83,East,83,2.1,2.1,97,0.00,,,0.01,TxWx,2013-07-02 21:34:00,
2013-07-02 17:35:00,72.1,71.0,30.83,East,83,3.6,3.9,97,0.00,,,0.01,TxWx,2013-07-02 21:35:00,
2013-07-02 17:36:00,78.8,73.0,30.77,East,84,5.4,8.1,83,0.00,,,0.01,TxWx,2013-07-02 21:36:00,
2013-07-02 17:37:00,72.2,71.0,30.83,East,83,1.8,2.1,97,0.00,,,0.01,TxWx,2013-07-02 21:37:00,
2013-07-02 17:38:00,72.2,71.0,30.83,East,84,2.4,2.4,97,0.00,,,0.01,TxWx,2013-07-02 21:38:00,
2013-07-02 17:39:00,72.2,71.0,30.83,East,84,2.1,2.1,97,0.00,,,0.01,TxWx,2013-07-02 21:39:00,
2013-07-02 17:40:00,72.1,71.0,30.83,East,84,2.4,2.7,97,0.00,,,0.01,TxWx,2013-07-02 21:40:00,
2013-07-02 17:41:00,78.4,72.0,30.77,East,83,8.1,8.7,83,0.00,,,0.01,TxWx,2013-07-02 21:41:00,
2013-07-02 17:42:00,72.1,71.0,30.83,East,83,2.1,2.7,97,0.00,,,0.01,TxWx,2013-07-02 21:42:00,
2013-07-02 17:43:00,72.1,71.0,30.83,East,83,4.8,4.8,97,0.00,,,0.01,TxWx,2013-07-02 21:43:00,
2013-07-02 17:46:00,78.6,74.0,30.77,East,84,9.0,9.3,84,0.00,,,0.01,TxWx,2013-07-02 21:46:00,
2013-07-02 17:51:00,78.8,73.0,30.77,East,84,10.2,10.2,83,0.00,,,0.01,TxWx,2013-07-02 21:51:00,
2013-07-02 17:53:00,71.9,71.0,30.83,East,83,2.7,3.3,97,0.00,,,0.01,TxWx,2013-07-02 21:53:00,
2013-07-02 17:55:00,72.0,71.0,30.83,East,84,4.2,4.2,97,0.00,,,0.01,TxWx,2013-07-02 21:55:00,
2013-07-02 17:56:00,79.1,73.0,30.78,East,84,10.5,11.4,82,0.00,,,0.01,TxWx,2013-07-02 21:56:00,
2013-07-02 17:57:00,72.0,71.0,30.83,East,83,3.9,4.2,98,0.00,,,0.01,TxWx,2013-07-02 21:57:00,
2013-07-02 17:58:00,71.9,71.0,30.83,East,83,2.1,2.4,98,0.00,,,0.01,TxWx,2013-07-02 21:58:00,
2013-07-02 17:59:00,71.9,71.0,30.83,East,83,2.1,2.4,98,0.00,,,0.01,TxWx,2013-07-02 21:59:00,
2013-07-02 18:00:00,72.0,71.0,30.83,East,83,2.1,2.4,98,0.00,,,0.01,TxWx,2013-07-02 22:00:00,
2013-07-02 18:01:00,78.3,72.0,30.78,East,84,9.0,9.0,83,0.00,,,0.01,TxWx,2013-07-02 22:01:00,
2013-07-02 18:02:00,71.9,71.0,30.83,East,83,1.5,1.8,98,0.00,,,0.01,TxWx,2013-07-02 22:02:00,
2013-07-02 18:03:00,72.0,71.0,30.83,East,83,1.2,1.5,98,0.00,,,0.01,TxWx,2013-07-02 22:03:00,
2013-07-02 18:05:00,71.9,71.0,30.83,East,83,5.1,5.1,98,0.00,,,0.01,TxWx,2013-07-02 22:05:00,
2013-07-02 18:06:00,71.9,71.0,30.83,East,83,4.5,4.5,98,0.00,,,0.01,TxWx,2013-07-02 22:06:00,
2013-07-02 18:07:00,78.3,73.0,30.78,East,83,9.3,9.6,85,0.00,,,0.01,TxWx,2013-07-02 22:07:00,
2013-07-02 18:08:00,72.0,71.0,30.83,East,83,3.3,3.6,98,0.00,,,0.01,TxWx,2013-07-02 22:08:00,
2013-07-02 18:09:00,72.0,71.0,30.83,East,83,2.7,2.7,98,0.00,,,0.01,TxWx,2013-07-02 22:09:00,
2013-07-02 18:10:00,72.0,71.0,30.83,East,83,2.4,2.7,98,0.00,,,0.01,TxWx,2013-07-02 22:10:00,
2013-07-02 18:11:00,71.9,71.0,30.83,East,83,3.9,4.5,98,0.00,,,0.01,TxWx,2013-07-02 22:11:00,
2013-07-02 18:12:00,77.7,73.0,30.78,East,84,10.8,10.8,85,0.00,,,0.01,TxWx,2013-07-02 22:12:00,
2013-07-02 18:13:00,71.9,71.0,30.83,East,83,4.2,4.2,98,0.00,,,0.01,TxWx,2013-07-02 22:13:00,
2013-07-02 18:14:00,71.9,71.0,30.83,East,83,3.6,3.9,98,0.00,,,0.01,TxWx,2013-07-02 22:14:00,
2013-07-02 18:15:00,71.9,71.0,30.83,East,83,2.4,2.4,98,0.00,,,0.01,TxWx,2013-07-02 22:15:00,
2013-07-02 18:16:00,71.9,71.0,30.82,East,83,3.3,3.6,98,0.00,,,0.01,TxWx,2013-07-02 22:16:00,
2013-07-02 18:17:00,77.4,72.0,30.78,East,83,6.0,6.6,85,0.00,,,0.01,TxWx,2013-07-02 22:17:00,
2013-07-02 18:19:00,71.9,71.0,30.82,East,83,4.5,4.8,98,0.00,,,0.01,TxWx,2013-07-02 22:19:00,
2013-07-02 18:20:00,71.9,71.0,30.82,East,83,4.8,4.8,98,0.00,,,0.01,TxWx,2013-07-02 22:20:00,
2013-07-02 18:21:00,72.0,71.0,30.82,East,84,2.1,2.1,98,0.00,,,0.01,TxWx,2013-07-02 22:21:00,
2013-07-02 18:22:00,72.0,71.0,30.82,East,83,4.8,4.8,98,0.00,,,0.01,TxWx,2013-07-02 22:22:00,
2013-07-02 18:23:00,77.2,72.0,30.78,East,83,6.0,6.6,86,0.00,,,0.01,TxWx,2013-07-02 22:23:00,
2013-07-02 18:24:00,71.9,71.0,30.82,East,84,4.2,5.1,98,0.00,,,0.01,TxWx,2013-07-02 22:24:00,
2013-07-02 18:25:00,71.9,71.0,30.82,East,83,3.9,3.9,98,0.00,,,0.01,TxWx,2013-07-02 22:25:00,
2013-07-02 18:26:00,71.9,71.0,30.82,East,83,2.7,3.0,98,0.00,,,0.01,TxWx,2013-07-02 22:26:00,
2013-07-02 18:27:00,71.9,71.0,30.82,East,84,3.3,3.3,98,0.00,,,0.01,TxWx,2013-07-02 22:27:00,
2013-07-02 18:28:00,77.3,73.0,30.79,East,83,5.4,6.0,87,0.00,,,0.01,TxWx,2013-07-02 22:28:00,
2013-07-02 18:29:00,71.9,71.0,30.82,East,84,2.1,2.4,98,0.00,,,0.01,TxWx,2013-07-02 22:29:00,
2013-07-02 18:30:00,71.9,71.0,30.82,East,83,1.8,1.8,98,0.00,,,0.01,TxWx,2013-07-02 22:30:00,
2013-07-02 18:31:00,71.9,71.0,30.83,East,83,3.0,3.0,98,0.00,,,0.01,TxWx,2013-07-02 22:31:00,
2013-07-02 18:32:00,71.9,71.0,30.82,East,83,2.7,3.6,98,0.00,,,0.01,TxWx,2013-07-02 22:32:00,
2013-07-02 18:33:00,77.3,73.0,30.79,East,83,6.3,6.3,87,0.00,,,0.01,TxWx,2013-07-02 22:33:00,
2013-07-02 18:34:00,71.8,71.0,30.82,East,84,3.3,3.9,98,0.00,,,0.01,TxWx,2013-07-02 22:34:00,
2013-07-02 18:35:00,71.8,71.0,30.82,East,83,3.3,3.3,98,0.00,,,0.01,TxWx,2013-07-02 22:35:00,
2013-07-02 18:36:00,71.8,71.0,30.82,East,83,2.4,2.4,98,0.00,,,0.01,TxWx,2013-07-02 22:36:00,
2013-07-02 18:37:00,71.7,71.0,30.82,East,84,3.9,3.9,98,0.00,,,0.01,TxWx,2013-07-02 22:37:00,
2013-07-02 18:38:00,77.1,73.0,30.79,East,83,3.9,3.9,87,0.00,,,0.01,TxWx,2013-07-02 22:38:00,
2013-07-02 18:39:00,71.7,71.0,30.82,East,83,4.2,4.2,98,0.00,,,0.01,TxWx,2013-07-02 22:39:00,
2013-07-02 18:40:00,71.7,71.0,30.82,East,83,2.1,2.4,98,0.00,,,0.01,TxWx,2013-07-02 22:40:00,
2013-07-02 18:41:00,71.7,71.0,30.82,East,83,3.3,3.6,98,0.00,,,0.01,TxWx,2013-07-02 22:41:00,
2013-07-02 18:42:00,71.6,71.0,30.82,East,83,3.3,3.3,98,0.00,,,0.01,TxWx,2013-07-02 22:42:00,
2013-07-02 18:43:00,77.0,73.0,30.80,East,83,6.0,6.6,88,0.00,,,0.01,TxWx,2013-07-02 22:43:00,
2013-07-02 18:44:00,71.6,71.0,30.82,East,83,3.9,4.2,98,0.00,,,0.01,TxWx,2013-07-02 22:44:00,
2013-07-02 18:45:00,71.7,71.0,30.82,East,83,3.9,3.9,98,0.00,,,0.01,TxWx,2013-07-02 22:45:00,
2013-07-02 18:46:00,71.6,71.0,30.82,East,84,2.4,2.7,98,0.00,,,0.01,TxWx,2013-07-02 22:46:00,
2013-07-02 18:47:00,71.6,71.0,30.82,East,84,3.0,3.3,98,0.00,,,0.01,TxWx,2013-07-02 22:47:00,
2013-07-02 18:48:00,77.0,73.0,30.80,East,83,7.2,7.5,88,0.00,,,0.01,TxWx,2013-07-02 22:48:00,
2013-07-02 18:49:00,71.6,71.0,30.82,East,83,2.4,2.4,98,0.00,,,0.01,TxWx,2013-07-02 22:49:00,
2013-07-02 18:51:00,71.6,71.0,30.83,East,83,3.0,3.3,98,0.00,,,0.01,TxWx,2013-07-02 22:51:00,
2013-07-02 18:53:00,76.3,72.0,30.80,East,84,6.6,6.6,89,0.00,,,0.01,TxWx,2013-07-02 22:53:00,
2013-07-02 18:54:00,71.6,71.0,30.82,East,83,1.8,1.8,98,0.00,,,0.01,TxWx,2013-07-02 22:54:00,
2013-07-02 18:55:00,71.5,71.0,30.82,East,83,2.4,2.4,98,0.00,,,0.01,TxWx,2013-07-02 22:55:00,
2013-07-02 18:56:00,71.5,71.0,30.82,East,83,1.5,1.8,98,0.00,,,0.01,TxWx,2013-07-02 22:56:00,
2013-07-02 18:58:00,76.0,73.0,30.80,East,83,10.2,11.4,89,0.00,,,0.01,TxWx,2013-07-02 22:58:00,
2013-07-02 18:59:00,71.5,72.0,30.82,East,83,3.9,3.9,99,0.00,,,0.01,TxWx,2013-07-02 22:59:00,
2013-07-02 19:00:00,71.5,72.0,30.83,East,83,2.4,2.7,99,0.00,,,0.01,TxWx,2013-07-02 23:00:00,
2013-07-02 19:01:00,71.5,71.0,30.83,East,84,1.8,1.8,99,0.00,,,0.01,TxWx,2013-07-02 23:01:00,
2013-07-02 19:02:00,71.5,71.0,30.83,East,84,1.2,1.8,99,0.00,,,0.01,TxWx,2013-07-02 23:02:00,
2013-07-02 19:03:00,71.5,71.0,30.83,East,83,2.7,3.0,99,0.00,,,0.01,TxWx,2013-07-02 23:03:00,
2013-07-02 19:04:00,75.6,73.0,30.80,East,84,12.0,12.9,90,0.00,,,0.01,TxWx,2013-07-02 23:04:00,
2013-07-02 19:06:00,71.4,71.0,30.83,East,84,3.0,3.0,99,0.00,,,0.01,TxWx,2013-07-02 23:06:00,
2013-07-02 19:07:00,71.4,71.0,30.83,East,83,3.0,3.0,99,0.00,,,0.01,TxWx,2013-07-02 23:07:00,
2013-07-02 19:08:00,71.4,71.0,30.83,East,84,3.3,3.6,99,0.00,,,0.01,TxWx,2013-07-02 23:08:00,
2013-07-02 19:09:00,75.7,73.0,30.80,East,83,5.7,7.8,91,0.00,,,0.01,TxWx,2013-07-02 23:09:00,
2013-07-02 19:11:00,71.4,71.0,30.83,East,84,3.9,3.9,99,0.00,,,0.01,TxWx,2013-07-02 23:11:00,
2013-07-02 19:12:00,71.4,71.0,30.83,East,84,3.3,3.3,99,0.00,,,0.01,TxWx,2013-07-02 23:12:00,
2013-07-02 19:14:00,75.5,73.0,30.81,East,83,7.8,7.8,91,0.00,,,0.01,TxWx,2013-07-02 23:14:00,
2013-07-02 19:15:00,71.3,71.0,30.83,East,84,2.1,2.4,99,0.00,,,0.01,TxWx,2013-07-02 23:15:00,
2013-07-02 19:16:00,71.3,71.0,30.83,East,84,3.0,3.0,99,0.00,,,0.01,TxWx,2013-07-02 23:16:00,
2013-07-02 19:17:00,71.3,71.0,30.83,East,83,3.3,3.3,99,0.00,,,0.01,TxWx,2013-07-02 23:17:00,
2013-07-02 19:18:00,71.3,71.0,30.83,East,83,2.4,2.4,99,0.00,,,0.01,TxWx,2013-07-02 23:18:00,
2013-07-02 19:19:00,75.6,73.0,30.81,East,83,6.3,6.3,91,0.00,,,0.01,TxWx,2013-07-02 23:19:00,
2013-07-02 19:20:00,71.3,71.0,30.83,East,83,3.3,3.3,99,0.00,,,0.01,TxWx,2013-07-02 23:20:00,
2013-07-02 19:21:00,71.3,71.0,30.83,East,84,2.7,2.7,99,0.00,,,0.01,TxWx,2013-07-02 23:21:00,
2013-07-02 19:22:00,71.3,71.0,30.83,East,84,2.7,2.7,99,0.00,,,0.01,TxWx,2013-07-02 23:22:00,
2013-07-02 19:24:00,75.4,72.0,30.81,East,84,7.2,7.5,91,0.00,,,0.01,TxWx,2013-07-02 23:24:00,
2013-07-02 19:25:00,71.2,71.0,30.83,East,83,3.0,3.0,99,0.00,,,0.01,TxWx,2013-07-02 23:25:00,
2013-07-02 19:27:00,71.2,71.0,30.83,East,84,3.9,4.5,99,0.00,,,0.01,TxWx,2013-07-02 23:27:00,
2013-07-02 19:28:00,71.2,71.0,30.83,East,84,3.3,3.9,99,0.00,,,0.01,TxWx,2013-07-02 23:28:00,
2013-07-02 19:29:00,75.3,72.0,30.81,East,83,9.3,9.3,91,0.00,,,0.01,TxWx,2013-07-02 23:29:00,
2013-07-02 19:30:00,71.2,71.0,30.83,East,83,1.8,1.8,99,0.00,,,0.01,TxWx,2013-07-02 23:30:00,
2013-07-02 19:31:00,71.2,71.0,30.83,East,84,2.4,2.4,99,0.00,,,0.01,TxWx,2013-07-02 23:31:00,
2013-07-02 19:32:00,71.2,71.0,30.83,East,83,5.4,5.4,99,0.00,,,0.01,TxWx,2013-07-02 23:32:00,
2013-07-02 19:33:00,71.2,71.0,30.83,East,83,4.8,5.1,99,0.00,,,0.01,TxWx,2013-07-02 23:33:00,
2013-07-02 19:34:00,71.2,71.0,30.83,East,83,3.0,3.0,100,0.00,,,0.01,TxWx,2013-07-02 23:34:00,
2013-07-02 19:35:00,75.1,72.0,30.81,East,84,7.8,7.8,92,0.00,,,0.01,TxWx,2013-07-02 23:35:00,
2013-07-02 19:39:00,71.1,71.0,30.83,East,83,5.1,5.1,100,0.00,,,0.01,TxWx,2013-07-02 23:39:00,
2013-07-02 19:40:00,75.0,72.0,30.81,East,83,7.5,8.1,92,0.00,,,0.01,TxWx,2013-07-02 23:40:00,
2013-07-02 19:42:00,71.0,71.0,30.83,East,83,5.1,5.1,100,0.00,,,0.01,TxWx,2013-07-02 23:42:00,
2013-07-02 19:43:00,71.0,71.0,30.83,East,83,4.8,4.8,100,0.00,,,0.01,TxWx,2013-07-02 23:43:00,
2013-07-02 19:44:00,71.0,71.0,30.83,East,83,3.3,3.3,100,0.00,,,0.01,TxWx,2013-07-02 23:44:00,
2013-07-02 19:45:00,75.0,72.0,30.81,East,83,7.5,8.1,92,0.00,,,0.01,TxWx,2013-07-02 23:45:00,
2013-07-02 19:50:00,74.8,73.0,30.81,East,83,12.3,13.2,92,0.00,,,0.01,TxWx,2013-07-02 23:50:00,
2013-07-02 19:52:00,71.0,71.0,30.83,East,84,1.8,1.8,100,0.00,,,0.01,TxWx,2013-07-02 23:52:00,
2013-07-02 19:53:00,71.0,71.0,30.83,East,83,2.1,2.1,100,0.00,,,0.01,TxWx,2013-07-02 23:53:00,
2013-07-02 19:54:00,71.0,71.0,30.83,East,83,4.5,4.5,100,0.00,,,0.01,TxWx,2013-07-02 23:54:00,
2013-07-02 19:56:00,74.6,73.0,30.81,East,83,4.8,5.1,93,0.00,,,0.01,TxWx,2013-07-02 23:56:00,
2013-07-02 19:57:00,71.0,71.0,30.83,East,84,1.5,1.5,100,0.00,,,0.01,TxWx,2013-07-02 23:57:00,
2013-07-02 19:59:00,71.0,71.0,30.83,East,84,2.1,2.1,100,0.00,,,0.01,TxWx,2013-07-02 23:59:00,
2013-07-02 20:00:00,71.0,71.0,30.83,East,84,3.3,3.9,100,0.00,,,0.01,TxWx,2013-07-03 00:00:00,
2013-07-02 20:01:00,74.6,73.0,30.81,East,83,9.6,9.6,93,0.00,,,0.01,TxWx,2013-07-03 00:01:00,
2013-07-02 20:02:00,71.0,71.0,30.83,East,83,3.3,3.3,100,0.00,,,0.01,TxWx,2013-07-03 00:02:00,
2013-07-02 20:03:00,71.0,71.0,30.83,East,83,2.7,3.3,100,0.00,,,0.01,TxWx,2013-07-03 00:03:00,
2013-07-02 20:04:00,71.0,71.0,30.83,East,83,2.7,3.0,100,0.00,,,0.01,TxWx,2013-07-03 00:04:00,
2013-07-02 20:05:00,71.0,71.0,30.83,East,83,3.3,3.9,100,0.00,,,0.01,TxWx,2013-07-03 00:05:00,
2013-07-02 20:06:00,74.4,72.0,30.81,East,83,7.5,7.5,93,0.00,,,0.01,TxWx,2013-07-03 00:06:00,
2013-07-02 20:09:00,71.0,71.0,30.83,East,83,2.7,2.7,100,0.00,,,0.01,TxWx,2013-07-03 00:09:00,
2013-07-02 20:10:00,70.9,71.0,30.83,East,83,2.4,2.7,100,0.00,,,0.01,TxWx,2013-07-03 00:10:00,
2013-07-02 20:11:00,74.4,72.0,30.81,East,83,6.6,6.6,94,0.00,,,0.01,TxWx,2013-07-03 00:11:00,
2013-07-02 20:12:00,70.9,71.0,30.83,East,83,3.6,3.6,100,0.00,,,0.01,TxWx,2013-07-03 00:12:00,
2013-07-02 20:14:00,70.9,71.0,30.83,East,83,2.7,2.7,100,0.00,,,0.01,TxWx,2013-07-03 00:14:00,
2013-07-02 20:16:00,71.0,71.0,30.83,East,83,1.8,1.8,100,0.00,,,0.01,TxWx,2013-07-03 00:16:00,
2013-07-02 20:17:00,74.2,72.0,30.81,East,84,6.3,6.3,94,0.00,,,0.01,TxWx,2013-07-03 00:17:00,
2013-07-02 20:18:00,71.0,71.0,30.83,East,83,1.5,1.5,100,0.00,,,0.01,TxWx,2013-07-03 00:18:00,
2013-07-02 20:19:00,71.0,71.0,30.83,East,83,1.5,1.8,100,0.00,,,0.01,TxWx,2013-07-03 00:19:00,
2013-07-02 20:20:00,71.0,71.0,30.83,East,83,2.7,3.0,100,0.00,,,0.01,TxWx,2013-07-03 00:20:00,
2013-07-02 20:21:00,71.0,71.0,30.83,East,83,2.4,2.7,100,0.00,,,0.01,TxWx,2013-07-03 00:21:00,
2013-07-02 20:22:00,74.3,72.0,30.81,East,83,4.2,4.2,94,0.00,,,0.01,TxWx,2013-07-03 00:22:00,
2013-07-02 20:23:00,71.0,71.0,30.83,East,83,2.7,2.7,100,0.00,,,0.01,TxWx,2013-07-03 00:23:00,
2013-07-02 20:24:00,71.0,71.0,30.83,East,83,3.0,3.0,100,0.00,,,0.01,TxWx,2013-07-03 00:24:00,
2013-07-02 20:25:00,70.9,71.0,30.83,East,84,1.8,1.8,100,0.00,,,0.01,TxWx,2013-07-03 00:25:00,
2013-07-02 20:26:00,70.9,71.0,30.83,East,83,3.9,3.9,100,0.00,,,0.01,TxWx,2013-07-03 00:26:00,
2013-07-02 20:27:00,70.9,71.0,30.83,East,83,2.7,3.0,100,0.00,,,0.01,TxWx,2013-07-03 00:27:00,
2013-07-02 20:28:00,70.9,71.0,30.83,East,83,3.6,3.9,100,0.00,,,0.01,TxWx,2013-07-03 00:28:00,
2013-07-02 20:29:00,70.9,71.0,30.83,East,83,2.1,2.4,100,0.00,,,0.01,TxWx,2013-07-03 00:29:00,
2013-07-02 20:30:00,70.9,71.0,30.83,East,83,3.0,3.3,100,0.00,,,0.01,TxWx,2013-07-03 00:30:00,
2013-07-02 20:31:00,74.2,72.0,30.82,East,83,2.7,3.0,94,0.00,,,0.01,TxWx,2013-07-03 00:31:00,
2013-07-02 20:32:00,70.9,71.0,30.83,East,83,3.0,3.3,100,0.00,,,0.01,TxWx,2013-07-03 00:32:00,
2013-07-02 20:33:00,70.9,71.0,30.83,East,83,4.5,4.5,100,0.00,,,0.01,TxWx,2013-07-03 00:33:00,
2013-07-02 20:34:00,70.9,71.0,30.83,East,83,7.5,7.5,100,0.00,,,0.01,TxWx,2013-07-03 00:34:00,
2013-07-02 20:35:00,70.9,71.0,30.83,East,83,4.8,4.8,100,0.00,,,0.01,TxWx,2013-07-03 00:35:00,
2013-07-02 20:36:00,70.9,71.0,30.83,East,83,3.0,3.6,100,0.00,,,0.01,TxWx,2013-07-03 00:36:00,
2013-07-02 20:37:00,74.0,72.0,30.81,East,83,6.3,7.2,94,0.00,,,0.01,TxWx,2013-07-03 00:37:00,
2013-07-02 20:38:00,71.0,71.0,30.83,East,83,2.7,3.0,100,0.00,,,0.01,TxWx,2013-07-03 00:38:00,
2013-07-02 20:39:00,71.0,71.0,30.83,East,83,5.7,5.7,100,0.00,,,0.01,TxWx,2013-07-03 00:39:00,
2013-07-02 20:40:00,71.0,71.0,30.83,East,83,4.2,4.2,100,0.00,,,0.01,TxWx,2013-07-03 00:40:00,
2013-07-02 20:41:00,70.9,71.0,30.83,East,84,4.2,4.5,100,0.00,,,0.01,TxWx,2013-07-03 00:41:00,
2013-07-02 20:42:00,70.9,71.0,30.83,East,83,4.8,5.1,100,0.00,,,0.01,TxWx,2013-07-03 00:42:00,
2013-07-02 20:43:00,74.0,72.0,30.81,East,83,5.4,5.4,95,0.00,,,0.01,TxWx,2013-07-03 00:43:00,
2013-07-02 20:45:00,71.0,71.0,30.83,East,84,5.7,6.0,100,0.00,,,0.01,TxWx,2013-07-03 00:45:00,
2013-07-02 20:46:00,71.0,71.0,30.83,East,83,3.9,4.2,100,0.00,,,0.01,TxWx,2013-07-03 00:46:00,
2013-07-02 20:47:00,71.0,71.0,30.83,East,83,5.7,6.3,100,0.00,,,0.01,TxWx,2013-07-03 00:47:00,
2013-07-02 20:48:00,71.0,71.0,30.83,East,83,5.4,5.4,100,0.00,,,0.01,TxWx,2013-07-03 00:48:00,
2013-07-02 20:49:00,74.0,72.0,30.82,East,83,12.0,12.0,95,0.00,,,0.01,TxWx,2013-07-03 00:49:00,
2013-07-02 20:50:00,71.1,71.0,30.83,East,83,5.4,5.4,100,0.00,,,0.01,TxWx,2013-07-03 00:50:00,
2013-07-02 20:51:00,71.1,71.0,30.83,East,84,3.3,3.3,100,0.00,,,0.01,TxWx,2013-07-03 00:51:00,
2013-07-02 20:52:00,71.1,71.0,30.83,East,83,5.7,5.7,100,0.00,,,0.01,TxWx,2013-07-03 00:52:00,
2013-07-02 20:53:00,71.1,71.0,30.83,East,83,4.8,5.4,100,0.00,,,0.01,TxWx,2013-07-03 00:53:00,
2013-07-02 20:54:00,71.1,71.0,30.84,East,83,5.1,5.1,100,0.00,,,0.01,TxWx,2013-07-03 00:54:00,
2013-07-02 20:55:00,73.9,72.0,30.82,East,84,9.0,9.0,95,0.00,,,0.01,TxWx,2013-07-03 00:55:00,
2013-07-02 20:56:00,71.1,71.0,30.83,East,84,5.1,5.4,100,0.00,,,0.01,TxWx,2013-07-03 00:56:00,
2013-07-02 20:57:00,71.1,71.0,30.84,East,84,4.8,4.8,100,0.00,,,0.01,TxWx,2013-07-03 00:57:00,
2013-07-02 20:58:00,71.2,71.0,30.84,East,84,8.1,8.1,100,0.00,,,0.01,TxWx,2013-07-03 00:58:00,
2013-07-02 20:59:00,71.2,71.0,30.84,East,83,5.1,5.1,100,0.00,,,0.01,TxWx,2013-07-03 00:59:00,
2013-07-02 21:00:00,73.9,72.0,30.82,East,83,8.4,8.4,95,0.00,,,0.01,TxWx,2013-07-03 01:00:00,
2013-07-02 21:01:00,71.2,71.0,30.84,East,83,3.6,3.6,100,0.00,,,0.01,TxWx,2013-07-03 01:01:00,
2013-07-02 21:02:00,71.2,71.0,30.84,East,83,3.6,3.6,100,0.00,,,0.01,TxWx,2013-07-03 01:02:00,
2013-07-02 21:03:00,71.3,71.0,30.84,East,84,5.1,6.0,100,0.00,,,0.01,TxWx,2013-07-03 01:03:00,
2013-07-02 21:04:00,71.3,71.0,30.84,East,83,4.5,5.7,100,0.00,,,0.01,TxWx,2013-07-03 01:04:00,
2013-07-02 21:05:00,71.3,71.0,30.84,East,83,4.2,4.8,100,0.00,,,0.01,TxWx,2013-07-03 01:05:00,
2013-07-02 21:06:00,71.3,71.0,30.84,East,84,5.4,5.7,99,0.00,,,0.01,TxWx,2013-07-03 01:06:00,
2013-07-02 21:07:00,73.9,72.0,30.82,East,83,6.0,6.6,95,0.00,,,0.01,TxWx,2013-07-03 01:07:00,
2013-07-02 21:08:00,71.3,71.0,30.84,East,84,3.6,3.6,99,0.00,,,0.01,TxWx,2013-07-03 01:08:00,
2013-07-02 21:09:00,71.4,71.0,30.84,East,83,6.0,6.0,99,0.00,,,0.01,TxWx,2013-07-03 01:09:00,
2013-07-02 21:10:00,71.4,71.0,30.84,East,83,4.8,4.8,99,0.00,,,0.01,TxWx,2013-07-03 01:10:00,
2013-07-02 21:12:00,71.4,71.0,30.84,East,83,5.1,5.1,99,0.00,,,0.01,TxWx,2013-07-03 01:12:00,
2013-07-02 21:13:00,71.5,71.0,30.84,East,83,6.6,6.6,99,0.00,,,0.01,TxWx,2013-07-03 01:13:00,
2013-07-02 21:14:00,73.9,72.0,30.82,East,83,8.4,8.7,95,0.00,,,0.01,TxWx,2013-07-03 01:14:00,
2013-07-02 21:15:00,71.6,72.0,30.84,East,84,4.8,5.1,99,0.00,,,0.01,TxWx,2013-07-03 01:15:00,
2013-07-02 21:16:00,71.6,72.0,30.84,East,83,4.2,4.8,99,0.00,,,0.01,TxWx,2013-07-03 01:16:00,
2013-07-02 21:17:00,71.6,71.0,30.84,East,84,5.4,5.4,98,0.00,,,0.01,TxWx,2013-07-03 01:17:00,
2013-07-02 21:18:00,71.6,71.0,30.84,East,84,7.8,7.8,98,0.00,,,0.01,TxWx,2013-07-03 01:18:00,
2013-07-02 21:20:00,71.6,71.0,30.84,East,84,5.4,5.4,98,0.00,,,0.01,TxWx,2013-07-03 01:20:00,
2013-07-02 21:21:00,74.0,72.0,30.83,East,83,8.4,8.4,95,0.00,,,0.01,TxWx,2013-07-03 01:21:00,
2013-07-02 21:22:00,71.6,71.0,30.84,East,83,5.1,5.1,98,0.00,,,0.01,TxWx,2013-07-03 01:22:00,
2013-07-02 21:24:00,71.6,71.0,30.84,East,83,7.2,7.8,98,0.00,,,0.01,TxWx,2013-07-03 01:24:00,
2013-07-02 21:26:00,71.7,71.0,30.84,East,83,6.3,6.9,98,0.00,,,0.01,TxWx,2013-07-03 01:26:00,
2013-07-02 21:27:00,74.0,72.0,30.83,East,83,5.1,5.7,95,0.00,,,0.01,TxWx,2013-07-03 01:27:00,
2013-07-02 21:28:00,71.7,71.0,30.84,East,83,4.2,4.2,98,0.00,,,0.01,TxWx,2013-07-03 01:28:00,
2013-07-02 21:32:00,73.9,72.0,30.83,East,84,9.0,9.0,95,0.00,,,0.01,TxWx,2013-07-03 01:32:00,
2013-07-02 21:39:00,74.0,72.0,30.84,East,84,6.6,6.6,95,0.00,,,0.01,TxWx,2013-07-03 01:39:00,
2013-07-02 21:44:00,74.0,72.0,30.84,East,83,5.1,5.1,95,0.00,,,0.01,TxWx,2013-07-03 01:44:00,
2013-07-02 21:47:00,71.7,71.0,30.85,East,83,7.8,7.8,97,0.00,,,0.01,TxWx,2013-07-03 01:47:00,
2013-07-02 21:49:00,71.6,71.0,30.85,East,83,6.0,6.0,97,0.00,,,0.01,TxWx,2013-07-03 01:49:00,
2013-07-02 21:50:00,74.0,72.0,30.84,East,83,5.7,5.7,95,0.00,,,0.01,TxWx,2013-07-03 01:50:00,
2013-07-02 21:51:00,71.7,71.0,30.84,East,83,9.0,9.0,97,0.00,,,0.01,TxWx,2013-07-03 01:51:00,
2013-07-02 21:52:00,71.7,71.0,30.85,East,83,6.6,6.6,97,0.00,,,0.01,TxWx,2013-07-03 01:52:00,
2013-07-02 21:53:00,71.8,71.0,30.85,East,84,6.6,6.9,97,0.00,,,0.01,TxWx,2013-07-03 01:53:00,
2013-07-02 21:54:00,71.7,71.0,30.85,East,83,7.5,7.5,97,0.00,,,0.01,TxWx,2013-07-03 01:54:00,
2013-07-02 21:55:00,74.1,72.0,30.84,East,84,2.7,3.0,95,0.00,,,0.01,TxWx,2013-07-03 01:55:00,
2013-07-02 21:56:00,71.8,71.0,30.85,East,83,5.1,5.4,97,0.00,,,0.01,TxWx,2013-07-03 01:56:00,
2013-07-02 21:58:00,71.7,71.0,30.85,East,83,5.4,5.4,97,0.00,,,0.01,TxWx,2013-07-03 01:58:00,
2013-07-02 21:59:00,71.7,71.0,30.85,East,83,5.4,5.4,97,0.00,,,0.01,TxWx,2013-07-03 01:59:00,
2013-07-02 22:00:00,71.7,71.0,30.85,East,83,6.3,6.3,97,0.00,,,0.01,TxWx,2013-07-03 02:00:00,
2013-07-02 22:01:00,71.7,71.0,30.85,East,83,10.5,11.1,97,0.00,,,0.01,TxWx,2013-07-03 02:01:00,
2013-07-02 22:02:00,74.1,72.0,30.84,East,83,4.8,4.8,94,0.00,,,0.01,TxWx,2013-07-03 02:02:00,
2013-07-02 22:04:00,71.8,71.0,30.85,East,83,4.2,5.1,97,0.00,,,0.01,TxWx,2013-07-03 02:04:00,
2013-07-02 22:05:00,71.8,71.0,30.85,East,83,6.3,6.3,97,0.00,,,0.01,TxWx,2013-07-03 02:05:00,
2013-07-02 22:06:00,71.9,71.0,30.85,East,84,6.6,6.6,97,0.00,,,0.01,TxWx,2013-07-03 02:06:00,
2013-07-02 22:07:00,71.9,71.0,30.85,East,83,6.6,7.5,97,0.00,,,0.01,TxWx,2013-07-03 02:07:00,
2013-07-02 22:08:00,74.1,72.0,30.84,East,83,4.8,5.4,94,0.00,,,0.01,TxWx,2013-07-03 02:08:00,
2013-07-02 22:09:00,71.9,71.0,30.85,East,83,4.8,5.4,97,0.00,,,0.01,TxWx,2013-07-03 02:09:00,
2013-07-02 22:10:00,72.0,71.0,30.85,East,84,3.6,3.6,97,0.00,,,0.01,TxWx,2013-07-03 02:10:00,
2013-07-02 22:11:00,71.9,71.0,30.85,East,84,13.8,13.8,97,0.00,,,0.01,TxWx,2013-07-03 02:11:00,
2013-07-02 22:12:00,72.0,71.0,30.85,East,84,11.1,11.1,97,0.00,,,0.01,TxWx,2013-07-03 02:12:00,
2013-07-02 22:13:00,74.2,72.0,30.84,East,83,5.7,5.7,94,0.00,,,0.01,TxWx,2013-07-03 02:13:00,
2013-07-02 22:14:00,72.0,71.0,30.85,East,83,5.7,6.6,97,0.00,,,0.01,TxWx,2013-07-03 02:14:00,
2013-07-02 22:15:00,72.1,71.0,30.85,East,84,7.5,8.4,97,0.00,,,0.01,TxWx,2013-07-03 02:15:00,
2013-07-02 22:16:00,72.2,71.0,30.85,East,83,5.1,5.1,97,0.00,,,0.01,TxWx,2013-07-03 02:16:00,
2013-07-02 22:17:00,72.2,71.0,30.85,East,84,8.7,8.7,97,0.00,,,0.01,TxWx,2013-07-03 02:17:00,
2013-07-02 22:18:00,72.3,71.0,30.85,East,84,7.8,7.8,97,0.00,,,0.01,TxWx,2013-07-03 02:18:00,
2013-07-02 22:19:00,74.2,72.0,30.83,East,83,4.8,4.8,94,0.00,,,0.01,TxWx,2013-07-03 02:19:00,
2013-07-02 22:20:00,72.3,71.0,30.86,East,83,10.2,10.5,97,0.00,,,0.01,TxWx,2013-07-03 02:20:00,
2013-07-02 22:21:00,72.3,71.0,30.85,East,83,11.1,11.1,97,0.00,,,0.01,TxWx,2013-07-03 02:21:00,
2013-07-02 22:22:00,72.4,71.0,30.86,East,83,9.3,9.6,96,0.00,,,0.01,TxWx,2013-07-03 02:22:00,
2013-07-02 22:23:00,72.5,71.0,30.85,East,83,5.4,6.3,96,0.00,,,0.01,TxWx,2013-07-03 02:23:00,
2013-07-02 22:24:00,74.2,72.0,30.83,East,83,4.8,4.8,94,0.00,,,0.01,TxWx,2013-07-03 02:24:00,
2013-07-02 22:25:00,72.5,72.0,30.85,East,83,6.3,7.2,96,0.00,,,0.01,TxWx,2013-07-03 02:25:00,
2013-07-02 22:26:00,72.6,72.0,30.85,East,83,4.5,4.5,96,0.00,,,0.01,TxWx,2013-07-03 02:26:00,
2013-07-02 22:27:00,72.7,72.0,30.85,East,83,5.4,5.4,96,0.00,,,0.01,TxWx,2013-07-03 02:27:00,
2013-07-02 22:28:00,72.7,72.0,30.86,East,83,5.7,5.7,96,0.00,,,0.01,TxWx,2013-07-03 02:28:00,
2013-07-02 22:29:00,74.3,72.0,30.83,East,84,4.8,5.1,94,0.00,,,0.01,TxWx,2013-07-03 02:29:00,
2013-07-02 22:31:00,72.8,72.0,30.85,East,83,7.5,7.8,96,0.00,,,0.01,TxWx,2013-07-03 02:31:00,
2013-07-02 22:32:00,72.8,72.0,30.86,East,84,7.2,9.0,96,0.00,,,0.01,TxWx,2013-07-03 02:32:00,
2013-07-02 22:33:00,72.8,72.0,30.86,East,83,10.8,10.8,96,0.00,,,0.01,TxWx,2013-07-03 02:33:00,
2013-07-02 22:34:00,72.9,71.0,30.86,East,83,7.8,7.8,95,0.00,,,0.01,TxWx,2013-07-03 02:34:00,
2013-07-02 22:35:00,74.2,72.0,30.83,East,83,3.9,3.9,94,0.00,,,0.01,TxWx,2013-07-03 02:35:00,
2013-07-02 22:36:00,73.0,71.0,30.86,East,84,8.7,10.2,95,0.00,,,0.01,TxWx,2013-07-03 02:36:00,
2013-07-02 22:38:00,72.9,71.0,30.86,East,84,12.3,12.3,95,0.00,,,0.01,TxWx,2013-07-03 02:38:00,
2013-07-02 22:40:00,74.2,72.0,30.83,East,83,4.8,4.8,94,0.00,,,0.01,TxWx,2013-07-03 02:40:00,
2013-07-02 22:45:00,74.2,72.0,30.83,East,84,3.6,3.6,94,0.00,,,0.01,TxWx,2013-07-03 02:45:00,
2013-07-02 22:48:00,73.0,71.0,30.86,East,83,7.8,8.4,95,0.00,,,0.01,TxWx,2013-07-03 02:48:00,
2013-07-02 22:51:00,74.2,72.0,30.83,East,84,3.0,3.0,94,0.00,,,0.01,TxWx,2013-07-03 02:51:00,
2013-07-02 22:53:00,73.1,71.0,30.86,East,83,5.7,6.9,95,0.00,,,0.01,TxWx,2013-07-03 02:53:00,
2013-07-02 22:54:00,73.0,71.0,30.86,East,83,4.5,4.5,95,0.00,,,0.01,TxWx,2013-07-03 02:54:00,
2013-07-02 22:55:00,73.0,71.0,30.86,East,84,9.3,9.6,95,0.00,,,0.01,TxWx,2013-07-03 02:55:00,
2013-07-02 22:56:00,74.1,72.0,30.83,East,83,6.0,6.6,94,0.00,,,0.01,TxWx,2013-07-03 02:56:00,
2013-07-02 22:57:00,73.1,71.0,30.87,East,83,11.1,11.1,95,0.00,,,0.01,TxWx,2013-07-03 02:57:00,
2013-07-02 22:58:00,73.0,71.0,30.87,East,83,8.1,8.1,95,0.00,,,0.01,TxWx,2013-07-03 02:58:00,
2013-07-02 22:59:00,72.9,71.0,30.87,East,83,17.7,17.7,95,0.00,,,0.01,TxWx,2013-07-03 02:59:00,
2013-07-02 23:00:00,73.0,71.0,30.87,East,83,9.9,9.9,95,0.00,,,0.01,TxWx,2013-07-03 03:00:00,
2013-07-02 23:01:00,73.0,71.0,30.87,East,84,8.1,8.1,95,0.00,,,0.01,TxWx,2013-07-03 03:01:00,
2013-07-02 23:02:00,74.0,72.0,30.83,East,83,4.5,5.1,94,0.00,,,0.01,TxWx,2013-07-03 03:02:00,
2013-07-02 23:03:00,73.1,71.0,30.87,East,83,9.9,9.9,95,0.00,,,0.01,TxWx,2013-07-03 03:03:00,
2013-07-02 23:04:00,73.1,71.0,30.87,East,83,9.0,9.3,95,0.00,,,0.01,TxWx,2013-07-03 03:04:00,
2013-07-02 23:05:00,73.0,71.0,30.87,East,84,7.5,9.6,95,0.00,,,0.01,TxWx,2013-07-03 03:05:00,
2013-07-02 23:06:00,73.1,71.0,30.87,East,84,8.4,9.6,95,0.00,,,0.01,TxWx,2013-07-03 03:06:00,
2013-07-02 23:07:00,74.0,72.0,30.83,East,83,8.4,8.7,94,0.00,,,0.01,TxWx,2013-07-03 03:07:00,
2013-07-02 23:08:00,73.0,71.0,30.87,East,83,6.6,6.6,95,0.00,,,0.01,TxWx,2013-07-03 03:08:00,
2013-07-02 23:09:00,73.1,71.0,30.87,East,83,9.9,10.8,95,0.00,,,0.01,TxWx,2013-07-03 03:09:00,
2013-07-02 23:10:00,73.1,71.0,30.87,East,83,5.1,5.4,95,0.00,,,0.01,TxWx,2013-07-03 03:10:00,
2013-07-02 23:11:00,73.1,71.0,30.87,East,83,4.2,4.2,95,0.00,,,0.01,TxWx,2013-07-03 03:11:00,
2013-07-02 23:12:00,73.8,72.0,30.83,East,83,8.7,8.7,94,0.00,,,0.01,TxWx,2013-07-03 03:12:00,
2013-07-02 23:13:00,73.1,71.0,30.87,East,83,6.0,6.3,95,0.00,,,0.01,TxWx,2013-07-03 03:13:00,
2013-07-02 23:14:00,73.0,71.0,30.87,East,83,5.1,6.9,95,0.00,,,0.01,TxWx,2013-07-03 03:14:00,
2013-07-02 23:15:00,73.0,71.0,30.87,East,83,6.6,6.6,95,0.00,,,0.01,TxWx,2013-07-03 03:15:00,
2013-07-02 23:16:00,73.0,71.0,30.87,East,84,11.4,11.7,95,0.00,,,0.01,TxWx,2013-07-03 03:16:00,
2013-07-02 23:17:00,73.1,71.0,30.87,East,84,7.5,7.5,95,0.00,,,0.01,TxWx,2013-07-03 03:17:00,
2013-07-02 23:18:00,73.8,72.0,30.83,East,83,6.0,6.6,94,0.00,,,0.01,TxWx,2013-07-03 03:18:00,
2013-07-02 23:19:00,73.0,71.0,30.87,East,84,7.8,9.9,95,0.00,,,0.01,TxWx,2013-07-03 03:19:00,
2013-07-02 23:20:00,73.2,71.0,30.87,East,83,5.7,5.7,95,0.00,,,0.01,TxWx,2013-07-03 03:20:00,
2013-07-02 23:21:00,73.2,71.0,30.87,East,84,6.9,6.9,95,0.00,,,0.01,TxWx,2013-07-03 03:21:00,
2013-07-02 23:22:00,73.2,71.0,30.87,East,83,3.0,3.3,95,0.00,,,0.01,TxWx,2013-07-03 03:22:00,
2013-07-02 23:24:00,73.2,71.0,30.87,East,83,3.3,3.6,95,0.00,,,0.01,TxWx,2013-07-03 03:24:00,
2013-07-02 23:26:00,73.7,72.0,30.83,East,83,4.2,4.5,95,0.00,,,0.01,TxWx,2013-07-03 03:26:00,
2013-07-02 23:28:00,73.3,71.0,30.88,East,83,4.2,4.2,95,0.00,,,0.01,TxWx,2013-07-03 03:28:00,
2013-07-02 23:29:00,73.3,71.0,30.88,East,84,7.5,7.5,95,0.00,,,0.01,TxWx,2013-07-03 03:29:00,
2013-07-02 23:30:00,73.3,71.0,30.88,East,83,5.7,7.8,94,0.00,,,0.01,TxWx,2013-07-03 03:30:00,
2013-07-02 23:31:00,73.2,71.0,30.88,East,83,9.0,10.2,94,0.00,,,0.01,TxWx,2013-07-03 03:31:00,
2013-07-02 23:32:00,73.7,72.0,30.83,East,84,5.7,6.9,95,0.00,,,0.01,TxWx,2013-07-03 03:32:00,
2013-07-02 23:33:00,73.3,71.0,30.88,East,84,5.7,5.7,94,0.00,,,0.01,TxWx,2013-07-03 03:33:00,
2013-07-02 23:34:00,73.4,71.0,30.88,East,84,3.6,3.6,94,0.00,,,0.01,TxWx,2013-07-03 03:34:00,
2013-07-02 23:35:00,73.4,71.0,30.88,East,84,3.6,3.6,94,0.00,,,0.01,TxWx,2013-07-03 03:35:00,
2013-07-02 23:36:00,73.4,71.0,30.88,East,83,6.6,7.8,94,0.00,,,0.01,TxWx,2013-07-03 03:36:00,
2013-07-02 23:38:00,73.6,72.0,30.83,East,84,5.1,5.1,95,0.00,,,0.01,TxWx,2013-07-03 03:38:00,
2013-07-02 23:39:00,73.5,71.0,30.88,East,84,4.5,4.5,94,0.00,,,0.01,TxWx,2013-07-03 03:39:00,
2013-07-02 23:40:00,73.4,71.0,30.88,East,83,4.8,6.3,94,0.00,,,0.01,TxWx,2013-07-03 03:40:00,
2013-07-02 23:42:00,73.5,71.0,30.88,East,84,5.1,5.7,94,0.00,,,0.01,TxWx,2013-07-03 03:42:00,
2013-07-02 23:43:00,73.4,71.0,30.83,East,83,5.7,5.7,95,0.00,,,0.01,TxWx,2013-07-03 03:43:00,
2013-07-02 23:44:00,73.5,72.0,30.88,East,84,3.0,3.6,94,0.00,,,0.01,TxWx,2013-07-03 03:44:00,
2013-07-02 23:46:00,73.6,72.0,30.88,East,84,8.1,8.4,94,0.00,,,0.01,TxWx,2013-07-03 03:46:00,
2013-07-02 23:47:00,73.7,72.0,30.88,East,83,3.9,4.5,94,0.00,,,0.01,TxWx,2013-07-03 03:47:00,
2013-07-02 23:48:00,73.3,71.0,30.83,East,83,6.0,6.0,95,0.00,,,0.01,TxWx,2013-07-03 03:48:00,
2013-07-02 23:49:00,73.7,72.0,30.88,East,83,2.4,2.4,94,0.00,,,0.01,TxWx,2013-07-03 03:49:00,
2013-07-02 23:50:00,73.7,72.0,30.88,East,83,5.4,5.4,94,0.00,,,0.01,TxWx,2013-07-03 03:50:00,
2013-07-02 23:51:00,73.8,72.0,30.88,East,83,1.8,2.4,94,0.00,,,0.01,TxWx,2013-07-03 03:51:00,
2013-07-02 23:52:00,73.7,72.0,30.88,East,83,3.9,4.8,94,0.00,,,0.01,TxWx,2013-07-03 03:52:00,
2013-07-02 23:53:00,73.3,71.0,30.83,East,83,4.8,5.1,95,0.00,,,0.02,TxWx,2013-07-03 03:53:00,
2013-07-02 23:54:00,73.8,72.0,30.88,East,83,7.5,8.4,94,0.00,,,0.01,TxWx,2013-07-03 03:54:00,
2013-07-02 23:55:00,73.7,72.0,30.88,East,84,8.7,9.3,93,0.00,,,0.01,TxWx,2013-07-03 03:55:00,
2013-07-02 23:56:00,73.7,72.0,30.88,East,84,6.9,7.2,93,0.00,,,0.01,TxWx,2013-07-03 03:56:00,
2013-07-02 23:57:00,73.8,72.0,30.88,East,84,3.0,3.6,94,0.00,,,0.01,TxWx,2013-07-03 03:57:00,
2013-07-02 23:58:00,73.8,72.0,30.88,East,84,4.2,4.2,94,0.00,,,0.01,TxWx,2013-07-03 03:58:00,
2013-07-02 23:59:00,72.9,72.0,30.83,East,83,2.4,2.4,96,0.06,,,0.00,TxWx,2013-07-03 03:59:00,